QTR912 OTHH-CYYZ

Flight info

Callsign QTR912
Flight time 14h 6m
Altitude 34000
Route ULIKA M430 KSA M321 HLF W334 NAGIP N697 RUKET L550 NOVPA N697 MENLI L677 CVO L617 NABSI/N0496F330 M855 MMA/N0496F340 M855 RASNO DCT TIPAC DCT TISAL DCT PEKOD DCT LURON DCT QUENN DCT GOPAT L978 OBOBO Z154 LOKDU DCT PADKO UY342 BULTO Y341 SALIN Y25 FJR DCT ESISI DCT GALOF/N0493F360 DCT IBISU DCT PEVIS/M085F360 DCT GUNSO/N0493F360 DCT ANATI Q812 MIVAX/N0477F380 Q812 UKPAM DCT CATOG Q824 LETAK IMEBA9
Aircraft A35K/H-SDE2E3GHIJ3J4J5LM1ORWXY/LB1D1

Departure

Time 2026-05-04 23:38
Airport Hamad International Airport (OTHH)

Arrival

Time 2026-05-05 13:45
Airport Toronto Pearson International Airport (CYYZ)
Time Latitude Longitude Altitude Speed Heading
2026-05-04 22:32 25.26067 51.60905 36 ft 0 kts 148°
2026-05-04 23:31 25.26080 51.60897 34 ft 4 kts 148°
2026-05-04 23:31 25.26102 51.60881 33 ft 3 kts 148°
2026-05-04 23:31 25.26122 51.60869 33 ft 4 kts 161°
2026-05-04 23:32 25.26146 51.60866 33 ft 4 kts 199°
2026-05-04 23:32 25.26165 51.60882 32 ft 3 kts 248°
2026-05-04 23:32 25.26175 51.60908 31 ft 4 kts 248°
2026-05-04 23:32 25.26179 51.60920 35 ft 0 kts 248°
2026-05-04 23:35 25.26178 51.60918 35 ft 1 kts 248°
2026-05-04 23:35 25.26170 51.60897 32 ft 4 kts 249°
2026-05-04 23:35 25.26148 51.60835 36 ft 13 kts 249°
2026-05-04 23:35 25.26107 51.60720 36 ft 17 kts 248°
2026-05-04 23:36 25.26037 51.60641 35 ft 15 kts 179°
2026-05-04 23:36 25.25939 51.60675 35 ft 15 kts 158°
2026-05-04 23:36 25.25842 51.60719 35 ft 15 kts 158°
2026-05-04 23:36 25.25746 51.60723 35 ft 14 kts 220°
2026-05-04 23:37 25.25705 51.60625 34 ft 15 kts 249°
2026-05-04 23:37 25.25684 51.60510 31 ft 16 kts 287°
2026-05-04 23:37 25.25764 51.60444 33 ft 15 kts 336°
2026-05-04 23:37 25.25959 51.60358 34 ft 59 kts 338°
2026-05-04 23:38 25.26553 51.60095 31 ft 123 kts 338°
2026-05-04 23:38 25.27535 51.59664 31 ft 179 kts 338°
2026-05-04 23:38 25.28758 51.59161 628 ft 183 kts 341°
2026-05-04 23:38 25.29945 51.58684 1370 ft 180 kts 339°
2026-05-04 23:39 25.31114 51.58143 1643 ft 186 kts 339°
2026-05-04 23:39 25.32351 51.57570 1776 ft 199 kts 339°
2026-05-04 23:39 25.33677 51.56967 1915 ft 213 kts 339°
2026-05-04 23:39 25.35086 51.56333 2002 ft 228 kts 339°
2026-05-04 23:40 25.36614 51.55653 2145 ft 242 kts 339°
2026-05-04 23:40 25.38136 51.54790 2411 ft 251 kts 326°
2026-05-04 23:40 25.39378 51.53401 2751 ft 259 kts 304°
2026-05-04 23:40 25.39965 51.51495 3124 ft 270 kts 275°
2026-05-04 23:41 25.39795 51.49413 3587 ft 274 kts 264°
2026-05-04 23:41 25.39456 51.47328 4062 ft 276 kts 263°
2026-05-04 23:41 25.39112 51.45239 4541 ft 277 kts 263°
2026-05-04 23:41 25.38772 51.43134 4985 ft 279 kts 263°
2026-05-04 23:42 25.38434 51.41015 5404 ft 281 kts 264°
2026-05-04 23:42 25.38096 51.38881 5852 ft 282 kts 264°
2026-05-04 23:42 25.37763 51.36770 6289 ft 284 kts 264°
2026-05-04 23:42 25.37424 51.34614 6689 ft 285 kts 264°
2026-05-04 23:43 25.37079 51.32427 7151 ft 285 kts 264°
2026-05-04 23:43 25.36738 51.30266 7609 ft 286 kts 264°
2026-05-04 23:43 25.36397 51.28102 8091 ft 286 kts 264°
2026-05-04 23:43 25.36056 51.25941 8565 ft 286 kts 264°
2026-05-04 23:44 25.35713 51.23769 9043 ft 287 kts 264°
2026-05-04 23:44 25.35369 51.21593 9560 ft 287 kts 264°
2026-05-04 23:44 25.35029 51.19443 10018 ft 288 kts 264°
2026-05-04 23:44 25.34681 51.17235 10292 ft 297 kts 264°
2026-05-04 23:45 25.34320 51.14936 10482 ft 310 kts 264°
2026-05-04 23:45 25.33943 51.12545 10660 ft 322 kts 264°
2026-05-04 23:45 25.33551 51.10071 10850 ft 333 kts 263°
2026-05-04 23:45 25.33143 51.07507 11017 ft 344 kts 263°
2026-05-04 23:46 25.32723 51.04870 11198 ft 354 kts 263°
2026-05-04 23:46 25.32289 51.02149 11358 ft 364 kts 263°
2026-05-04 23:46 25.31844 50.99366 11523 ft 373 kts 263°
2026-05-04 23:46 25.31387 50.96515 11719 ft 379 kts 263°
2026-05-04 23:47 25.30925 50.93631 12044 ft 382 kts 263°
2026-05-04 23:47 25.30460 50.90738 12429 ft 384 kts 263°
2026-05-04 23:47 25.29992 50.87826 12803 ft 386 kts 263°
2026-05-04 23:47 25.29521 50.84899 13136 ft 389 kts 263°
2026-05-04 23:48 25.29048 50.81954 13502 ft 390 kts 263°
2026-05-04 23:48 25.28571 50.78997 13852 ft 392 kts 262°
2026-05-04 23:48 25.28092 50.76023 14197 ft 393 kts 262°
2026-05-04 23:48 25.27611 50.73046 14550 ft 395 kts 262°
2026-05-04 23:49 25.27128 50.70058 14886 ft 396 kts 262°
2026-05-04 23:49 25.26642 50.67058 15229 ft 397 kts 262°
2026-05-04 23:49 25.26255 50.64034 15553 ft 398 kts 266°
2026-05-04 23:49 25.26075 50.60969 15826 ft 401 kts 269°
2026-05-04 23:50 25.26012 50.57881 16160 ft 402 kts 270°
2026-05-04 23:50 25.25998 50.54791 16501 ft 404 kts 271°
2026-05-04 23:50 25.25994 50.51682 16835 ft 405 kts 270°
2026-05-04 23:50 25.26004 50.48562 17148 ft 407 kts 271°
2026-05-04 23:51 25.26075 50.45432 17494 ft 409 kts 272°
2026-05-04 23:51 25.26138 50.43352 17713 ft 410 kts 272°
2026-05-04 23:51 25.26239 50.40195 17974 ft 413 kts 272°
2026-05-04 23:51 25.26333 50.37002 18174 ft 418 kts 272°
2026-05-04 23:52 25.26417 50.33792 18476 ft 418 kts 271°
2026-05-04 23:52 25.26491 50.30578 18800 ft 419 kts 271°
2026-05-04 23:52 25.26558 50.27360 19129 ft 419 kts 271°
2026-05-04 23:52 25.26622 50.24132 19442 ft 421 kts 271°
2026-05-04 23:53 25.26684 50.20901 19755 ft 422 kts 271°
2026-05-04 23:53 25.26746 50.17648 20020 ft 425 kts 271°
2026-05-04 23:53 25.26808 50.14372 20270 ft 428 kts 271°
2026-05-04 23:53 25.26870 50.11086 20611 ft 429 kts 271°
2026-05-04 23:54 25.26931 50.07789 20936 ft 429 kts 271°
2026-05-04 23:54 25.26992 50.04487 21266 ft 431 kts 271°
2026-05-04 23:54 25.27052 50.01176 21581 ft 432 kts 271°
2026-05-04 23:54 25.27112 49.97852 21902 ft 433 kts 271°
2026-05-04 23:55 25.27172 49.94515 22176 ft 436 kts 271°
2026-05-04 23:55 25.27231 49.91162 22455 ft 438 kts 271°
2026-05-04 23:55 25.27347 49.84424 23104 ft 440 kts 270°
2026-05-04 23:56 25.27404 49.81038 23405 ft 441 kts 270°
2026-05-04 23:56 25.27461 49.77646 23673 ft 442 kts 270°
2026-05-04 23:56 25.27517 49.74247 23940 ft 443 kts 270°
2026-05-04 23:56 25.27572 49.70837 24201 ft 444 kts 270°
2026-05-04 23:57 25.27626 49.67421 24469 ft 445 kts 270°
2026-05-04 23:57 25.27680 49.64000 24776 ft 445 kts 270°
2026-05-04 23:57 25.27733 49.60577 25095 ft 446 kts 270°
2026-05-04 23:57 25.27786 49.57159 25487 ft 444 kts 270°
2026-05-04 23:58 25.27837 49.53750 25829 ft 445 kts 270°
2026-05-04 23:58 25.27881 49.50331 26091 ft 446 kts 269°
2026-05-04 23:58 25.27731 49.46894 26348 ft 448 kts 265°
2026-05-04 23:58 25.27476 49.43464 26659 ft 449 kts 264°
2026-05-04 23:59 25.27187 49.40038 26992 ft 449 kts 264°
2026-05-04 23:59 25.26875 49.36594 27285 ft 450 kts 264°
2026-05-04 23:59 25.26556 49.33158 27585 ft 451 kts 263°
2026-05-04 23:59 25.26234 49.29710 27879 ft 452 kts 264°
2026-05-05 00:00 25.25912 49.26252 28161 ft 453 kts 263°
2026-05-05 00:00 25.25700 49.23961 28354 ft 453 kts 264°
2026-05-05 00:00 25.25272 49.19322 28707 ft 454 kts 264°
2026-05-05 00:00 25.24953 49.15851 28983 ft 455 kts 263°
2026-05-05 00:01 25.24632 49.12367 29232 ft 456 kts 263°
2026-05-05 00:01 25.24317 49.08926 29464 ft 457 kts 264°
2026-05-05 00:01 25.23991 49.05391 29735 ft 457 kts 264°
2026-05-05 00:01 25.23667 49.01909 30064 ft 455 kts 263°
2026-05-05 00:02 25.23348 48.98492 30345 ft 453 kts 263°
2026-05-05 00:02 25.23025 48.95032 30602 ft 452 kts 263°
2026-05-05 00:02 25.22702 48.91588 30841 ft 451 kts 263°
2026-05-05 00:02 25.22378 48.88146 31085 ft 450 kts 263°
2026-05-05 00:03 25.22056 48.84715 31317 ft 449 kts 263°
2026-05-05 00:03 25.21733 48.81298 31556 ft 448 kts 263°
2026-05-05 00:03 25.21410 48.77881 31773 ft 447 kts 263°
2026-05-05 00:03 25.21087 48.74471 32000 ft 446 kts 263°
2026-05-05 00:04 25.20765 48.71074 32220 ft 445 kts 263°
2026-05-05 00:04 25.20442 48.67685 32456 ft 443 kts 263°
2026-05-05 00:04 25.20120 48.64309 32731 ft 441 kts 263°
2026-05-05 00:04 25.19798 48.60941 32843 ft 442 kts 263°
2026-05-05 00:05 25.19475 48.57559 32989 ft 442 kts 263°
2026-05-05 00:05 25.19150 48.54187 33183 ft 441 kts 263°
2026-05-05 00:05 25.18826 48.50826 33396 ft 440 kts 263°
2026-05-05 00:05 25.18502 48.47478 33577 ft 439 kts 263°
2026-05-05 00:06 25.18178 48.44130 33771 ft 438 kts 263°
2026-05-05 00:06 25.17526 48.37428 33853 ft 442 kts 263°
2026-05-05 00:07 25.16863 48.30648 33853 ft 446 kts 263°
2026-05-05 00:07 25.16197 48.23856 33850 ft 445 kts 263°
2026-05-05 00:08 25.15528 48.17068 33863 ft 445 kts 262°
2026-05-05 00:08 25.14858 48.10261 33854 ft 446 kts 262°
2026-05-05 00:09 25.14180 48.03461 33856 ft 446 kts 262°
2026-05-05 00:09 25.13501 47.96708 33869 ft 447 kts 262°
2026-05-05 00:10 25.12812 47.89877 33868 ft 448 kts 262°
2026-05-05 00:10 25.12122 47.83046 33870 ft 448 kts 262°
2026-05-05 00:11 25.11372 47.76221 33873 ft 448 kts 261°
2026-05-05 00:11 25.10542 47.69401 33872 ft 448 kts 261°
2026-05-05 00:12 25.09716 47.62596 33893 ft 447 kts 261°
2026-05-05 00:12 25.08901 47.55796 33886 ft 448 kts 261°
2026-05-05 00:13 25.08088 47.48983 33890 ft 448 kts 261°
2026-05-05 00:13 25.07273 47.42165 33890 ft 448 kts 261°
2026-05-05 00:14 25.06456 47.35344 33896 ft 449 kts 261°
2026-05-05 00:14 25.05628 47.28517 33900 ft 450 kts 261°
2026-05-05 00:15 25.04797 47.21682 33903 ft 450 kts 261°
2026-05-05 00:15 25.03970 47.14895 33905 ft 450 kts 261°
2026-05-05 00:16 25.03136 47.08068 33904 ft 449 kts 261°
2026-05-05 00:16 25.02298 47.01240 33906 ft 449 kts 261°
2026-05-05 00:17 25.01457 46.94416 33909 ft 449 kts 261°
2026-05-05 00:17 25.00614 46.87610 33910 ft 448 kts 261°
2026-05-05 00:18 24.99770 46.80811 33908 ft 448 kts 261°
2026-05-05 00:18 24.98923 46.74013 33916 ft 448 kts 261°
2026-05-05 00:19 24.98238 46.67212 33914 ft 447 kts 266°
2026-05-05 00:19 24.98529 46.60370 33902 ft 448 kts 271°
2026-05-05 00:20 24.99058 46.53524 33912 ft 447 kts 272°
2026-05-05 00:20 24.99620 46.46699 33913 ft 447 kts 272°
2026-05-05 00:21 25.00168 46.39878 33910 ft 447 kts 272°
2026-05-05 00:21 25.00701 46.33062 33909 ft 446 kts 271°
2026-05-05 00:22 25.01224 46.26296 33907 ft 446 kts 271°
2026-05-05 00:22 25.01748 46.19484 33891 ft 445 kts 271°
2026-05-05 00:23 25.02267 46.12696 33895 ft 444 kts 271°
2026-05-05 00:23 25.02782 46.05926 33897 ft 443 kts 271°
2026-05-05 00:24 25.03292 45.99159 33897 ft 443 kts 271°
2026-05-05 00:24 25.03799 45.92395 33896 ft 442 kts 271°
2026-05-05 00:25 25.04303 45.85648 33895 ft 441 kts 271°
2026-05-05 00:25 25.04803 45.78900 33894 ft 441 kts 271°
2026-05-05 00:26 25.05300 45.72162 33889 ft 441 kts 271°
2026-05-05 00:26 25.06023 45.65437 33889 ft 442 kts 275°
2026-05-05 00:27 25.07109 45.58773 33887 ft 441 kts 276°
2026-05-05 00:27 25.08247 45.52128 33886 ft 441 kts 276°
2026-05-05 00:28 25.09386 45.45478 33887 ft 441 kts 276°
2026-05-05 00:28 25.10514 45.38832 33887 ft 441 kts 276°
2026-05-05 00:29 25.11635 45.32185 33884 ft 440 kts 276°
2026-05-05 00:29 25.12751 45.25547 33890 ft 440 kts 276°
2026-05-05 00:30 25.13863 45.18916 33878 ft 439 kts 276°
2026-05-05 00:30 25.14970 45.12293 33886 ft 439 kts 276°
2026-05-05 00:31 25.16075 45.05662 33884 ft 439 kts 276°
2026-05-05 00:31 25.17168 44.99081 33893 ft 439 kts 276°
2026-05-05 00:32 25.18268 44.92447 33884 ft 439 kts 276°
2026-05-05 00:32 25.19366 44.85806 33892 ft 439 kts 276°
2026-05-05 00:33 25.20466 44.79127 33891 ft 440 kts 275°
2026-05-05 00:33 25.21552 44.72526 33896 ft 440 kts 275°
2026-05-05 00:34 25.22639 44.65890 33896 ft 439 kts 275°
2026-05-05 00:34 25.23724 44.59250 33910 ft 439 kts 275°
2026-05-05 00:35 25.24806 44.52614 33910 ft 438 kts 275°
2026-05-05 00:35 25.25921 44.45999 33913 ft 439 kts 276°
2026-05-05 00:36 25.27197 44.39393 33910 ft 439 kts 277°
2026-05-05 00:36 25.28487 44.32810 33915 ft 438 kts 277°
2026-05-05 00:37 25.29752 44.26219 33912 ft 438 kts 276°
2026-05-05 00:37 25.30999 44.19626 33915 ft 438 kts 276°
2026-05-05 00:38 25.32237 44.13044 33913 ft 437 kts 276°
2026-05-05 00:38 25.33473 44.06462 33913 ft 437 kts 276°
2026-05-05 00:39 25.34705 43.99887 33920 ft 437 kts 276°
2026-05-05 00:39 25.35933 43.93322 33919 ft 436 kts 276°
2026-05-05 00:40 25.37155 43.86764 33912 ft 436 kts 276°
2026-05-05 00:40 25.38368 43.80247 33911 ft 435 kts 276°
2026-05-05 00:41 25.39583 43.73695 33918 ft 435 kts 276°
2026-05-05 00:41 25.40795 43.67144 33914 ft 435 kts 276°
2026-05-05 00:42 25.42006 43.60585 33914 ft 435 kts 276°
2026-05-05 00:42 25.43016 43.55104 33914 ft 434 kts 276°
2026-05-05 00:43 25.44215 43.48573 33924 ft 434 kts 276°
2026-05-05 00:43 25.45412 43.42035 33927 ft 433 kts 275°
2026-05-05 00:44 25.46607 43.35500 33922 ft 433 kts 275°
2026-05-05 00:44 25.47796 43.28972 33917 ft 433 kts 275°
2026-05-05 00:45 25.48982 43.22447 33927 ft 433 kts 275°
2026-05-05 00:45 25.50164 43.15927 33914 ft 432 kts 275°
2026-05-05 00:46 25.51342 43.09415 33919 ft 431 kts 275°
2026-05-05 00:46 25.52515 43.02904 33911 ft 431 kts 275°
2026-05-05 00:47 25.53684 42.96425 33916 ft 432 kts 275°
2026-05-05 00:47 25.54856 42.89907 33916 ft 432 kts 275°
2026-05-05 00:48 25.56023 42.83381 33916 ft 432 kts 275°
2026-05-05 00:48 25.57206 42.76866 33914 ft 432 kts 275°
2026-05-05 00:49 25.58369 42.70337 33917 ft 432 kts 275°
2026-05-05 00:49 25.59516 42.63814 33918 ft 432 kts 275°
2026-05-05 00:50 25.60668 42.57289 33918 ft 431 kts 275°
2026-05-05 00:50 25.61817 42.50782 33919 ft 430 kts 275°
2026-05-05 00:51 25.62963 42.44281 33916 ft 430 kts 275°
2026-05-05 00:51 25.64108 42.37777 33917 ft 430 kts 275°
2026-05-05 00:52 25.65248 42.31278 33917 ft 429 kts 275°
2026-05-05 00:52 25.66503 42.24799 33921 ft 433 kts 279°
2026-05-05 00:53 25.68167 42.18376 33936 ft 434 kts 279°
2026-05-05 00:53 25.69895 42.11979 33924 ft 433 kts 280°
2026-05-05 00:54 25.71628 42.05587 33930 ft 433 kts 279°
2026-05-05 00:54 25.73348 41.99198 33933 ft 432 kts 279°
2026-05-05 00:55 25.75061 41.92816 33936 ft 431 kts 279°
2026-05-05 00:55 25.76764 41.86449 33937 ft 430 kts 279°
2026-05-05 00:56 25.78463 41.80080 33937 ft 430 kts 279°
2026-05-05 00:56 25.80160 41.73716 33936 ft 430 kts 279°
2026-05-05 00:57 25.81850 41.67364 33945 ft 429 kts 279°
2026-05-05 00:57 25.83535 41.61018 33939 ft 429 kts 279°
2026-05-05 00:58 25.85206 41.54711 33956 ft 429 kts 279°
2026-05-05 00:58 25.86884 41.48365 33954 ft 428 kts 279°
2026-05-05 00:59 25.88569 41.41980 33960 ft 428 kts 279°
2026-05-05 00:59 25.90230 41.35675 33955 ft 428 kts 279°
2026-05-05 01:00 25.91899 41.29330 33963 ft 428 kts 279°
2026-05-05 01:00 25.93562 41.22993 33960 ft 427 kts 279°
2026-05-05 01:01 25.95224 41.16644 33973 ft 429 kts 279°
2026-05-05 01:01 25.96888 41.10281 33974 ft 428 kts 279°
2026-05-05 01:02 25.98545 41.03934 33978 ft 427 kts 279°
2026-05-05 01:02 26.00197 40.97593 33979 ft 427 kts 279°
2026-05-05 01:03 26.01845 40.91249 33991 ft 427 kts 279°
2026-05-05 01:03 26.03488 40.84922 33979 ft 424 kts 279°
2026-05-05 01:04 26.05117 40.78631 33983 ft 423 kts 279°
2026-05-05 01:04 26.07556 40.69184 33983 ft 423 kts 279°
2026-05-05 01:05 26.09177 40.62888 33987 ft 423 kts 279°
2026-05-05 01:05 26.10796 40.56587 33981 ft 423 kts 279°
2026-05-05 01:06 26.12407 40.50284 33991 ft 424 kts 279°
2026-05-05 01:06 26.14027 40.43975 33995 ft 424 kts 279°
2026-05-05 01:07 26.15645 40.37654 33992 ft 425 kts 279°
2026-05-05 01:07 26.17266 40.31323 33996 ft 425 kts 279°
2026-05-05 01:08 26.18875 40.24994 33991 ft 425 kts 278°
2026-05-05 01:08 26.20487 40.18627 34003 ft 429 kts 278°
2026-05-05 01:09 26.22111 40.12212 34004 ft 431 kts 278°
2026-05-05 01:09 26.23737 40.05792 34008 ft 431 kts 278°
2026-05-05 01:10 26.25359 39.99370 34006 ft 432 kts 278°
2026-05-05 01:10 26.26990 39.92889 34003 ft 436 kts 278°
2026-05-05 01:11 26.28625 39.86385 34001 ft 436 kts 278°
2026-05-05 01:11 26.30258 39.79885 34013 ft 436 kts 279°
2026-05-05 01:12 26.31888 39.73373 33993 ft 436 kts 279°
2026-05-05 01:12 26.33514 39.66866 33993 ft 436 kts 279°
2026-05-05 01:13 26.35138 39.60354 33996 ft 436 kts 279°
2026-05-05 01:13 26.36749 39.53879 33987 ft 435 kts 279°
2026-05-05 01:14 26.38362 39.47385 33989 ft 435 kts 279°
2026-05-05 01:14 26.39972 39.40888 33990 ft 434 kts 279°
2026-05-05 01:15 26.41578 39.34392 34016 ft 435 kts 279°
2026-05-05 01:15 26.43545 39.27996 33989 ft 442 kts 288°
2026-05-05 01:16 26.46943 39.22153 33991 ft 456 kts 299°
2026-05-05 01:16 26.50975 39.16651 33991 ft 459 kts 301°
2026-05-05 01:17 26.55103 39.11200 34012 ft 460 kts 301°
2026-05-05 01:17 26.59205 39.05750 33991 ft 458 kts 301°
2026-05-05 01:18 26.63278 39.00287 33991 ft 457 kts 300°
2026-05-05 01:18 26.67342 38.94819 33993 ft 457 kts 300°
2026-05-05 01:19 26.71404 38.89343 33993 ft 457 kts 300°
2026-05-05 01:19 26.75458 38.83873 33998 ft 457 kts 301°
2026-05-05 01:20 26.79512 38.78399 33993 ft 457 kts 300°
2026-05-05 01:20 26.83562 38.72924 34002 ft 456 kts 300°
2026-05-05 01:21 26.87608 38.67449 33998 ft 456 kts 300°
2026-05-05 01:21 26.91650 38.61971 34011 ft 456 kts 301°
2026-05-05 01:22 26.95688 38.56491 34004 ft 456 kts 301°
2026-05-05 01:22 26.99726 38.51007 34006 ft 456 kts 301°
2026-05-05 01:23 27.03764 38.45514 34011 ft 456 kts 301°
2026-05-05 01:23 27.07795 38.40024 34012 ft 456 kts 301°
2026-05-05 01:24 27.11824 38.34531 34014 ft 456 kts 301°
2026-05-05 01:24 27.15823 38.29071 34006 ft 456 kts 301°
2026-05-05 01:25 27.19851 38.23565 34021 ft 456 kts 301°
2026-05-05 01:25 27.23875 38.18057 34027 ft 456 kts 301°
2026-05-05 01:26 27.27899 38.12542 34018 ft 456 kts 301°
2026-05-05 01:26 27.31921 38.07024 34020 ft 456 kts 301°
2026-05-05 01:27 27.35938 38.01505 34021 ft 456 kts 301°
2026-05-05 01:27 27.39303 37.96876 34026 ft 456 kts 301°
2026-05-05 01:28 27.43320 37.91346 34028 ft 456 kts 301°
2026-05-05 01:28 27.47326 37.85822 34028 ft 456 kts 301°
2026-05-05 01:29 27.51334 37.80288 34028 ft 456 kts 301°
2026-05-05 01:29 27.55311 37.74790 34028 ft 456 kts 301°
2026-05-05 01:30 27.59313 37.69250 34035 ft 455 kts 300°
2026-05-05 01:30 27.63311 37.63711 34031 ft 455 kts 300°
2026-05-05 01:31 27.67307 37.58167 34029 ft 455 kts 300°
2026-05-05 01:31 27.71300 37.52619 34029 ft 455 kts 300°
2026-05-05 01:32 27.75288 37.47071 34050 ft 455 kts 300°
2026-05-05 01:32 27.79269 37.41526 34028 ft 454 kts 300°
2026-05-05 01:33 27.83246 37.35979 34029 ft 454 kts 300°
2026-05-05 01:33 27.87218 37.30431 34031 ft 454 kts 300°
2026-05-05 01:34 27.91188 37.24878 34031 ft 454 kts 300°
2026-05-05 01:34 27.95158 37.19320 34022 ft 454 kts 300°
2026-05-05 01:35 27.99121 37.13771 34040 ft 453 kts 300°
2026-05-05 01:35 28.03075 37.08213 34027 ft 453 kts 300°
2026-05-05 01:36 28.07022 37.02663 34026 ft 453 kts 300°
2026-05-05 01:36 28.10970 36.97105 34032 ft 452 kts 300°
2026-05-05 01:37 28.14911 36.91551 34026 ft 452 kts 300°
2026-05-05 01:37 28.18848 36.85995 34025 ft 452 kts 300°
2026-05-05 01:38 28.22785 36.80431 34022 ft 452 kts 300°
2026-05-05 01:38 28.26693 36.74902 34020 ft 452 kts 300°
2026-05-05 01:39 28.30623 36.69333 34021 ft 453 kts 300°
2026-05-05 01:39 28.34556 36.63753 34021 ft 453 kts 300°
2026-05-05 01:40 28.38546 36.58202 34021 ft 456 kts 303°
2026-05-05 01:40 28.42865 36.52900 34021 ft 458 kts 305°
2026-05-05 01:41 28.47255 36.47639 34024 ft 459 kts 304°
2026-05-05 01:41 28.51601 36.42333 34023 ft 458 kts 304°
2026-05-05 01:42 28.55915 36.36994 34023 ft 458 kts 304°
2026-05-05 01:42 28.60218 36.31646 34023 ft 458 kts 304°
2026-05-05 01:43 28.64520 36.26294 34025 ft 458 kts 304°
2026-05-05 01:43 28.68593 36.20791 34029 ft 448 kts 296°
2026-05-05 01:44 28.71306 36.14574 34029 ft 432 kts 282°
2026-05-05 01:44 28.73080 36.08051 34021 ft 430 kts 280°
2026-05-05 01:45 28.74700 36.01494 34028 ft 430 kts 279°
2026-05-05 01:45 28.76316 35.94928 34035 ft 430 kts 279°
2026-05-05 01:46 28.77951 35.88368 34039 ft 430 kts 280°
2026-05-05 01:46 28.79594 35.81810 34037 ft 430 kts 280°
2026-05-05 01:47 28.81237 35.75243 34054 ft 430 kts 280°
2026-05-05 01:47 28.82872 35.68686 34047 ft 429 kts 280°
2026-05-05 01:48 28.84500 35.62144 34049 ft 429 kts 279°
2026-05-05 01:48 28.86125 35.55595 34037 ft 429 kts 279°
2026-05-05 01:49 28.87748 35.49036 34059 ft 430 kts 280°
2026-05-05 01:49 28.89366 35.42490 34034 ft 428 kts 279°
2026-05-05 01:50 28.90975 35.35957 34035 ft 427 kts 279°
2026-05-05 01:50 28.92574 35.29444 34038 ft 426 kts 279°
2026-05-05 01:51 28.94167 35.22962 34055 ft 427 kts 279°
2026-05-05 01:51 28.95759 35.16465 34047 ft 424 kts 279°
2026-05-05 01:52 28.97353 35.09942 34038 ft 424 kts 279°
2026-05-05 01:52 28.98921 35.03501 34044 ft 424 kts 279°
2026-05-05 01:53 29.00497 34.97022 34054 ft 423 kts 279°
2026-05-05 01:53 29.02066 34.90560 34050 ft 421 kts 279°
2026-05-05 01:54 29.03263 34.84060 34040 ft 415 kts 271°
2026-05-05 01:54 29.03397 34.77509 34046 ft 412 kts 266°
2026-05-05 01:55 29.03329 34.70970 34043 ft 412 kts 268°
2026-05-05 01:55 29.04101 34.64447 34035 ft 419 kts 280°
2026-05-05 01:56 29.05825 34.58060 34070 ft 422 kts 282°
2026-05-05 01:56 29.07709 34.51702 34077 ft 422 kts 283°
2026-05-05 01:57 29.09605 34.45351 34068 ft 422 kts 283°
2026-05-05 01:57 29.11483 34.38996 34072 ft 422 kts 283°
2026-05-05 01:58 29.13340 34.32628 34072 ft 422 kts 282°
2026-05-05 01:58 29.15194 34.26254 34080 ft 422 kts 282°
2026-05-05 01:59 29.17046 34.19880 34090 ft 422 kts 283°
2026-05-05 01:59 29.18895 34.13507 34090 ft 422 kts 283°
2026-05-05 02:00 29.20730 34.07170 34092 ft 422 kts 283°
2026-05-05 02:00 29.22573 34.00792 34091 ft 422 kts 283°
2026-05-05 02:01 29.24415 33.94411 34100 ft 422 kts 283°
2026-05-05 02:01 29.26260 33.88019 34093 ft 423 kts 283°
2026-05-05 02:02 29.28096 33.81625 34094 ft 423 kts 283°
2026-05-05 02:02 29.29932 33.75223 34096 ft 423 kts 283°
2026-05-05 02:03 29.31764 33.68822 34102 ft 423 kts 283°
2026-05-05 02:03 29.33592 33.62424 34093 ft 422 kts 283°
2026-05-05 02:04 29.35413 33.56038 34093 ft 421 kts 283°
2026-05-05 02:04 29.37231 33.49650 34095 ft 421 kts 283°
2026-05-05 02:05 29.39045 33.43262 34092 ft 421 kts 283°
2026-05-05 02:05 29.40857 33.36872 34091 ft 422 kts 283°
2026-05-05 02:06 29.42667 33.30474 34091 ft 422 kts 283°
2026-05-05 02:06 29.44472 33.24080 34091 ft 422 kts 283°
2026-05-05 02:07 29.46276 33.17674 34094 ft 422 kts 283°
2026-05-05 02:07 29.48074 33.11280 34093 ft 421 kts 283°
2026-05-05 02:08 29.49864 33.04898 34091 ft 420 kts 283°
2026-05-05 02:08 29.51651 32.98517 34091 ft 420 kts 283°
2026-05-05 02:09 29.53421 32.92178 34089 ft 420 kts 283°
2026-05-05 02:09 29.55202 32.85790 34090 ft 421 kts 283°
2026-05-05 02:10 29.56986 32.79376 34086 ft 422 kts 283°
2026-05-05 02:10 29.58772 32.72947 34086 ft 422 kts 283°
2026-05-05 02:11 29.60545 32.66511 34088 ft 422 kts 282°
2026-05-05 02:11 29.62054 32.60015 34093 ft 420 kts 280°
2026-05-05 02:12 29.64164 32.50262 34085 ft 419 kts 281°
2026-05-05 02:13 29.65613 32.43765 34081 ft 419 kts 281°
2026-05-05 02:13 29.67076 32.37279 34081 ft 419 kts 281°
2026-05-05 02:14 29.68540 32.30785 34088 ft 418 kts 281°
2026-05-05 02:14 29.69993 32.24322 34087 ft 418 kts 281°
2026-05-05 02:15 29.71443 32.17847 34087 ft 418 kts 281°
2026-05-05 02:15 29.72887 32.11378 34085 ft 418 kts 281°
2026-05-05 02:16 29.74086 32.05998 34098 ft 418 kts 282°
2026-05-05 02:16 29.75526 31.99521 34091 ft 418 kts 282°
2026-05-05 02:17 29.76965 31.93036 34087 ft 418 kts 282°
2026-05-05 02:17 29.78894 31.86705 34091 ft 423 kts 292°
2026-05-05 02:18 29.82071 31.80940 34093 ft 429 kts 300°
2026-05-05 02:18 29.85609 31.75395 34074 ft 430 kts 301°
2026-05-05 02:19 29.89190 31.69885 34072 ft 429 kts 301°
2026-05-05 02:19 29.92754 31.64362 34072 ft 429 kts 301°
2026-05-05 02:20 29.96329 31.58840 34070 ft 430 kts 301°
2026-05-05 02:20 29.99903 31.53319 34084 ft 429 kts 301°
2026-05-05 02:21 30.03467 31.47804 34077 ft 428 kts 301°
2026-05-05 02:21 30.07016 31.42299 34075 ft 427 kts 301°
2026-05-05 02:22 30.10934 31.37092 34072 ft 433 kts 309°
2026-05-05 02:22 30.15305 31.32281 34118 ft 435 kts 310°
2026-05-05 02:23 30.19739 31.27541 34080 ft 433 kts 311°
2026-05-05 02:23 30.24157 31.22819 34092 ft 432 kts 311°
2026-05-05 02:24 30.28525 31.18127 34093 ft 431 kts 311°
2026-05-05 02:24 30.32907 31.13405 34089 ft 430 kts 311°
2026-05-05 02:25 30.37285 31.08678 34088 ft 430 kts 311°
2026-05-05 02:25 30.41662 31.03946 34097 ft 430 kts 311°
2026-05-05 02:26 30.46041 30.99206 34095 ft 430 kts 311°
2026-05-05 02:26 30.50413 30.94469 34113 ft 431 kts 311°
2026-05-05 02:27 30.54795 30.89713 34098 ft 433 kts 311°
2026-05-05 02:27 30.59197 30.84933 34096 ft 433 kts 311°
2026-05-05 02:28 30.63589 30.80156 34094 ft 433 kts 311°
2026-05-05 02:28 30.67981 30.75373 34093 ft 432 kts 311°
2026-05-05 02:29 30.72365 30.70593 34088 ft 432 kts 311°
2026-05-05 02:29 30.76750 30.65804 34092 ft 432 kts 311°
2026-05-05 02:30 30.81136 30.61008 34080 ft 432 kts 311°
2026-05-05 02:30 30.85514 30.56213 34087 ft 432 kts 311°
2026-05-05 02:31 30.89894 30.51411 34085 ft 433 kts 311°
2026-05-05 02:31 30.94272 30.46606 34080 ft 433 kts 311°
2026-05-05 02:32 30.98652 30.41792 34075 ft 433 kts 311°
2026-05-05 02:32 31.03026 30.36978 34071 ft 431 kts 311°
2026-05-05 02:33 31.07187 30.31993 34073 ft 426 kts 304°
2026-05-05 02:33 31.10175 30.26170 34067 ft 420 kts 291°
2026-05-05 02:34 31.12120 30.19757 34069 ft 419 kts 287°
2026-05-05 02:34 31.13868 30.13261 34067 ft 419 kts 286°
2026-05-05 02:35 31.15598 30.06758 34064 ft 419 kts 287°
2026-05-05 02:35 31.17349 30.00259 34064 ft 420 kts 287°
2026-05-05 02:36 31.19642 29.93997 34048 ft 421 kts 298°
2026-05-05 02:36 31.22930 29.88311 34047 ft 424 kts 302°
2026-05-05 02:37 31.26413 29.82746 34050 ft 424 kts 303°
2026-05-05 02:37 31.29904 29.77209 34054 ft 423 kts 303°
2026-05-05 02:38 31.33378 29.71661 34054 ft 422 kts 303°
2026-05-05 02:38 31.36836 29.66104 34059 ft 422 kts 303°
2026-05-05 02:39 31.40287 29.60542 34060 ft 422 kts 303°
2026-05-05 02:39 31.43737 29.54977 34064 ft 422 kts 303°
2026-05-05 02:40 31.47183 29.49412 34064 ft 422 kts 303°
2026-05-05 02:40 31.50625 29.43845 34064 ft 422 kts 303°
2026-05-05 02:41 31.54064 29.38275 34066 ft 422 kts 303°
2026-05-05 02:41 31.57496 29.32707 34067 ft 422 kts 303°
2026-05-05 02:42 31.60930 29.27133 34067 ft 422 kts 303°
2026-05-05 02:42 31.64353 29.21544 34071 ft 421 kts 303°
2026-05-05 02:43 31.67742 29.15947 34072 ft 420 kts 301°
2026-05-05 02:43 31.70324 29.09819 34075 ft 420 kts 288°
2026-05-05 02:44 31.71402 29.03115 34073 ft 424 kts 274°
2026-05-05 02:44 31.70786 28.96152 34085 ft 429 kts 262°
2026-05-05 02:45 31.69360 28.89328 34084 ft 431 kts 261°
2026-05-05 02:45 31.67835 28.82522 34083 ft 431 kts 261°
2026-05-05 02:46 31.66327 28.75711 34091 ft 431 kts 261°
2026-05-05 02:46 31.64850 28.68944 34086 ft 431 kts 261°
2026-05-05 02:47 31.63367 28.62127 34087 ft 431 kts 261°
2026-05-05 02:47 31.61881 28.55308 34091 ft 431 kts 261°
2026-05-05 02:48 31.60394 28.48499 34088 ft 431 kts 261°
2026-05-05 02:48 31.58894 28.41691 34089 ft 430 kts 261°
2026-05-05 02:49 31.57396 28.34916 34097 ft 429 kts 261°
2026-05-05 02:49 31.55897 28.28133 34090 ft 430 kts 261°
2026-05-05 02:50 31.54393 28.21349 34092 ft 430 kts 261°
2026-05-05 02:50 31.52883 28.14557 34095 ft 430 kts 261°
2026-05-05 02:51 31.51372 28.07775 34092 ft 430 kts 261°
2026-05-05 02:51 31.49854 28.00984 34095 ft 431 kts 261°
2026-05-05 02:52 31.48336 27.94191 34077 ft 431 kts 261°
2026-05-05 02:52 31.46811 27.87402 34100 ft 430 kts 261°
2026-05-05 02:53 31.45283 27.80626 34100 ft 430 kts 261°
2026-05-05 02:53 31.43763 27.73893 34100 ft 430 kts 261°
2026-05-05 02:54 31.42230 27.67117 34103 ft 431 kts 261°
2026-05-05 02:54 31.40683 27.60299 34107 ft 431 kts 261°
2026-05-05 02:55 31.39153 27.53573 34120 ft 431 kts 261°
2026-05-05 02:55 31.37607 27.46794 34115 ft 431 kts 261°
2026-05-05 02:56 31.36057 27.40018 34126 ft 431 kts 261°
2026-05-05 02:56 31.34504 27.33245 34156 ft 431 kts 261°
2026-05-05 02:57 31.33060 27.26468 34156 ft 426 kts 266°
2026-05-05 02:57 31.32802 27.19646 34156 ft 417 kts 279°
2026-05-05 02:58 31.33890 27.13030 34115 ft 413 kts 286°
2026-05-05 02:58 31.35295 27.06512 34121 ft 413 kts 287°
2026-05-05 02:59 31.36729 27.00003 34121 ft 413 kts 287°
2026-05-05 02:59 31.38139 26.93483 34125 ft 413 kts 286°
2026-05-05 03:00 31.39529 26.86957 34125 ft 413 kts 286°
2026-05-05 03:00 31.40912 26.80429 34129 ft 413 kts 286°
2026-05-05 03:01 31.42293 26.73902 34128 ft 413 kts 286°
2026-05-05 03:01 31.43672 26.67368 34126 ft 413 kts 286°
2026-05-05 03:02 31.45047 26.60836 34130 ft 413 kts 286°
2026-05-05 03:02 31.46419 26.54297 34125 ft 413 kts 286°
2026-05-05 03:03 31.47785 26.47773 34130 ft 412 kts 286°
2026-05-05 03:03 31.48918 26.42350 34130 ft 412 kts 286°
2026-05-05 03:04 31.50277 26.35827 34132 ft 412 kts 286°
2026-05-05 03:04 31.51633 26.29297 34133 ft 412 kts 286°
2026-05-05 03:05 31.52985 26.22774 34136 ft 412 kts 286°
2026-05-05 03:05 31.54332 26.16253 34134 ft 412 kts 286°
2026-05-05 03:06 31.55677 26.09727 34118 ft 412 kts 286°
2026-05-05 03:06 31.57017 26.03204 34133 ft 412 kts 286°
2026-05-05 03:07 31.58061 25.96588 34138 ft 413 kts 282°
2026-05-05 03:07 31.58925 25.89913 34136 ft 414 kts 282°
2026-05-05 03:08 31.59759 25.83219 34133 ft 415 kts 282°
2026-05-05 03:08 31.60591 25.76529 34131 ft 415 kts 282°
2026-05-05 03:09 31.61426 25.69828 34129 ft 415 kts 282°
2026-05-05 03:09 31.62253 25.63178 34118 ft 415 kts 282°
2026-05-05 03:10 31.63084 25.56468 34136 ft 416 kts 282°
2026-05-05 03:10 31.63913 25.49744 34142 ft 417 kts 282°
2026-05-05 03:11 31.64739 25.43013 34137 ft 417 kts 282°
2026-05-05 03:11 31.65560 25.36285 34135 ft 417 kts 282°
2026-05-05 03:12 31.66379 25.29553 34136 ft 417 kts 282°
2026-05-05 03:12 31.67198 25.22795 34140 ft 418 kts 281°
2026-05-05 03:13 31.68423 25.16160 34141 ft 415 kts 291°
2026-05-05 03:13 31.70983 25.10140 34149 ft 413 kts 304°
2026-05-05 03:14 31.74624 25.04904 34143 ft 414 kts 309°
2026-05-05 03:14 31.78470 24.99854 34145 ft 415 kts 310°
2026-05-05 03:15 31.82319 24.94824 34146 ft 417 kts 310°
2026-05-05 03:15 31.86207 24.89697 34148 ft 417 kts 310°
2026-05-05 03:16 31.90030 24.84622 34146 ft 417 kts 310°
2026-05-05 03:16 31.93878 24.79500 34183 ft 418 kts 310°
2026-05-05 03:17 31.97717 24.74386 34146 ft 416 kts 310°
2026-05-05 03:17 32.01543 24.69283 34141 ft 416 kts 310°
2026-05-05 03:18 32.05371 24.64170 34139 ft 416 kts 309°
2026-05-05 03:18 32.09192 24.59059 34145 ft 416 kts 309°
2026-05-05 03:19 32.14924 24.51380 34137 ft 416 kts 309°
2026-05-05 03:19 32.18741 24.46257 34139 ft 416 kts 309°
2026-05-05 03:20 32.22561 24.41125 34137 ft 416 kts 309°
2026-05-05 03:20 32.26378 24.35987 34145 ft 417 kts 310°
2026-05-05 03:21 32.30210 24.30823 34142 ft 418 kts 309°
2026-05-05 03:21 32.34044 24.25649 34138 ft 418 kts 309°
2026-05-05 03:22 32.37873 24.20474 34138 ft 418 kts 309°
2026-05-05 03:22 32.41700 24.15295 34136 ft 418 kts 309°
2026-05-05 03:23 32.45500 24.10146 34138 ft 418 kts 309°
2026-05-05 03:23 32.49349 24.04923 34132 ft 419 kts 309°
2026-05-05 03:24 32.53166 23.99734 34135 ft 421 kts 309°
2026-05-05 03:24 32.57014 23.94498 34144 ft 421 kts 309°
2026-05-05 03:25 32.60862 23.89254 34137 ft 421 kts 309°
2026-05-05 03:25 32.64706 23.84007 34143 ft 420 kts 310°
2026-05-05 03:26 32.68529 23.78783 34140 ft 419 kts 310°
2026-05-05 03:26 32.72348 23.73555 34136 ft 419 kts 310°
2026-05-05 03:27 32.76174 23.68311 34140 ft 421 kts 310°
2026-05-05 03:27 32.80007 23.63050 34140 ft 421 kts 310°
2026-05-05 03:28 32.83837 23.57785 34137 ft 421 kts 310°
2026-05-05 03:28 32.87664 23.52517 34140 ft 421 kts 310°
2026-05-05 03:29 32.91488 23.47245 34142 ft 421 kts 310°
2026-05-05 03:29 32.95315 23.41963 34128 ft 421 kts 310°
2026-05-05 03:30 32.99142 23.36671 34139 ft 422 kts 310°
2026-05-05 03:30 33.02968 23.31369 34146 ft 421 kts 310°
2026-05-05 03:31 33.06778 23.26063 34144 ft 421 kts 310°
2026-05-05 03:31 33.10587 23.20750 34144 ft 421 kts 310°
2026-05-05 03:32 33.14372 23.15466 34144 ft 421 kts 310°
2026-05-05 03:32 33.18179 23.10144 34124 ft 421 kts 310°
2026-05-05 03:33 33.21998 23.04797 34144 ft 424 kts 310°
2026-05-05 03:33 33.25829 22.99427 34145 ft 425 kts 310°
2026-05-05 03:34 33.29664 22.94044 34145 ft 425 kts 310°
2026-05-05 03:34 33.33489 22.88666 34147 ft 423 kts 310°
2026-05-05 03:35 33.37292 22.83311 34146 ft 422 kts 310°
2026-05-05 03:35 33.41095 22.77948 34129 ft 422 kts 310°
2026-05-05 03:36 33.44906 22.72565 34142 ft 425 kts 310°
2026-05-05 03:36 33.48728 22.67160 34148 ft 426 kts 310°
2026-05-05 03:37 33.52553 22.61742 34149 ft 426 kts 310°
2026-05-05 03:37 33.56374 22.56322 34148 ft 426 kts 310°
2026-05-05 03:38 33.60194 22.50894 34148 ft 426 kts 310°
2026-05-05 03:38 33.64008 22.45467 34132 ft 425 kts 309°
2026-05-05 03:39 33.67825 22.40027 34150 ft 426 kts 310°
2026-05-05 03:39 33.71646 22.34574 34150 ft 427 kts 310°
2026-05-05 03:40 33.75439 22.29152 34151 ft 427 kts 309°
2026-05-05 03:40 33.79255 22.23690 34151 ft 427 kts 309°
2026-05-05 03:41 33.83071 22.18219 34150 ft 427 kts 309°
2026-05-05 03:41 33.86880 22.12749 34132 ft 427 kts 309°
2026-05-05 03:42 33.90704 22.07251 34149 ft 430 kts 309°
2026-05-05 03:42 33.94544 22.01720 34155 ft 430 kts 309°
2026-05-05 03:43 33.98379 21.96188 34149 ft 431 kts 309°
2026-05-05 03:43 34.02230 21.90658 34158 ft 431 kts 310°
2026-05-05 03:44 34.06130 21.85171 34154 ft 431 kts 310°
2026-05-05 03:44 34.10033 21.79689 34145 ft 431 kts 310°
2026-05-05 03:45 34.13939 21.74177 34154 ft 433 kts 310°
2026-05-05 03:45 34.17854 21.68633 34154 ft 434 kts 310°
2026-05-05 03:46 34.21770 21.63077 34157 ft 434 kts 310°
2026-05-05 03:46 34.25683 21.57519 34156 ft 434 kts 310°
2026-05-05 03:47 34.29591 21.51957 34166 ft 434 kts 310°
2026-05-05 03:47 34.33490 21.46400 34153 ft 432 kts 310°
2026-05-05 03:48 34.37585 21.41081 34152 ft 432 kts 314°
2026-05-05 03:48 34.41864 21.35976 34156 ft 432 kts 314°
2026-05-05 03:49 34.46126 21.30840 34161 ft 432 kts 314°
2026-05-05 03:49 34.50319 21.25691 34152 ft 432 kts 313°
2026-05-05 03:50 34.54524 21.20483 34154 ft 432 kts 313°
2026-05-05 03:50 34.58722 21.15271 34152 ft 432 kts 313°
2026-05-05 03:51 34.62928 21.10045 34159 ft 434 kts 313°
2026-05-05 03:51 34.67140 21.04807 34156 ft 433 kts 313°
2026-05-05 03:52 34.71350 20.99565 34160 ft 433 kts 313°
2026-05-05 03:52 34.75552 20.94324 34160 ft 433 kts 313°
2026-05-05 03:53 34.79754 20.89074 34156 ft 433 kts 313°
2026-05-05 03:53 34.83955 20.83817 34156 ft 433 kts 313°
2026-05-05 03:54 34.88152 20.78556 34156 ft 434 kts 313°
2026-05-05 03:54 34.91659 20.74155 34156 ft 436 kts 313°
2026-05-05 03:55 34.95877 20.68855 34159 ft 434 kts 313°
2026-05-05 03:55 35.00075 20.63570 34159 ft 434 kts 313°
2026-05-05 03:56 35.04271 20.58280 34161 ft 434 kts 313°
2026-05-05 03:56 35.08460 20.52989 34160 ft 434 kts 313°
2026-05-05 03:57 35.12653 20.47686 34159 ft 434 kts 313°
2026-05-05 03:57 35.16850 20.42369 34162 ft 436 kts 313°
2026-05-05 03:58 35.21064 20.37023 34159 ft 437 kts 313°
2026-05-05 03:58 35.25272 20.31675 34160 ft 436 kts 313°
2026-05-05 03:59 35.29470 20.26332 34159 ft 435 kts 313°
2026-05-05 03:59 35.33629 20.21030 34160 ft 434 kts 313°
2026-05-05 04:00 35.37811 20.15689 34165 ft 434 kts 313°
2026-05-05 04:00 35.41994 20.10340 34160 ft 435 kts 313°
2026-05-05 04:01 35.46183 20.04973 34169 ft 436 kts 313°
2026-05-05 04:01 35.50376 19.99594 34159 ft 436 kts 313°
2026-05-05 04:02 35.54568 19.94206 34173 ft 436 kts 313°
2026-05-05 04:02 35.58748 19.88825 34162 ft 435 kts 313°
2026-05-05 04:03 35.62920 19.83439 34162 ft 435 kts 312°
2026-05-05 04:03 35.66483 19.77454 34161 ft 435 kts 301°
2026-05-05 04:04 35.69411 19.70918 34161 ft 437 kts 299°
2026-05-05 04:04 35.72226 19.64302 34165 ft 437 kts 298°
2026-05-05 04:05 35.75035 19.57669 34161 ft 437 kts 298°
2026-05-05 04:05 35.77833 19.51088 34161 ft 437 kts 298°
2026-05-05 04:06 35.80673 19.44421 34164 ft 437 kts 298°
2026-05-05 04:06 35.83498 19.37779 34159 ft 438 kts 298°
2026-05-05 04:07 35.86322 19.31123 34159 ft 438 kts 298°
2026-05-05 04:07 35.89127 19.24499 34159 ft 438 kts 298°
2026-05-05 04:08 35.91943 19.17833 34161 ft 438 kts 298°
2026-05-05 04:08 35.94752 19.11173 34149 ft 438 kts 298°
2026-05-05 04:09 35.97563 19.04497 34162 ft 439 kts 298°
2026-05-05 04:09 36.00373 18.97805 34159 ft 439 kts 298°
2026-05-05 04:10 36.03180 18.91107 34159 ft 439 kts 298°
2026-05-05 04:10 36.05986 18.84399 34157 ft 439 kts 298°
2026-05-05 04:11 36.08785 18.77693 34150 ft 439 kts 297°
2026-05-05 04:11 36.11587 18.70969 34157 ft 440 kts 297°
2026-05-05 04:12 36.14388 18.64231 34157 ft 441 kts 297°
2026-05-05 04:12 36.17187 18.57482 34156 ft 441 kts 297°
2026-05-05 04:13 36.19980 18.50737 34156 ft 441 kts 297°
2026-05-05 04:13 36.22753 18.44024 34156 ft 441 kts 297°
2026-05-05 04:14 36.25546 18.37253 34156 ft 443 kts 297°
2026-05-05 04:14 36.28345 18.30448 34156 ft 443 kts 297°
2026-05-05 04:15 36.31138 18.23644 34154 ft 442 kts 297°
2026-05-05 04:15 36.33920 18.16854 34154 ft 441 kts 297°
2026-05-05 04:16 36.36696 18.10065 34154 ft 442 kts 297°
2026-05-05 04:16 36.39472 18.03261 34154 ft 442 kts 297°
2026-05-05 04:17 36.42242 17.96459 34154 ft 442 kts 297°
2026-05-05 04:17 36.45006 17.89654 34154 ft 442 kts 297°
2026-05-05 04:18 36.47772 17.82833 34151 ft 442 kts 297°
2026-05-05 04:18 36.50710 17.76141 34154 ft 442 kts 302°
2026-05-05 04:19 36.54093 17.69755 34148 ft 443 kts 303°
2026-05-05 04:19 36.57555 17.63399 34148 ft 444 kts 303°
2026-05-05 04:20 36.61029 17.57030 34146 ft 444 kts 303°
2026-05-05 04:20 36.64487 17.50658 34159 ft 444 kts 303°
2026-05-05 04:21 36.67914 17.44322 34150 ft 444 kts 303°
2026-05-05 04:21 36.71355 17.37944 34142 ft 444 kts 303°
2026-05-05 04:22 36.74807 17.31533 34143 ft 446 kts 303°
2026-05-05 04:22 36.78266 17.25098 34143 ft 447 kts 303°
2026-05-05 04:23 36.81723 17.18656 34143 ft 447 kts 303°
2026-05-05 04:23 36.85175 17.12211 34140 ft 447 kts 302°
2026-05-05 04:24 36.88624 17.05758 34140 ft 447 kts 302°
2026-05-05 04:25 36.93806 16.96037 34140 ft 449 kts 302°
2026-05-05 04:25 36.97269 16.89529 34149 ft 449 kts 302°
2026-05-05 04:26 37.00715 16.83037 34138 ft 447 kts 302°
2026-05-05 04:26 37.04155 16.76546 34139 ft 447 kts 302°
2026-05-05 04:27 37.07586 16.70060 34127 ft 447 kts 302°
2026-05-05 04:27 37.10996 16.63599 34129 ft 448 kts 302°
2026-05-05 04:28 37.14431 16.57078 34132 ft 448 kts 302°
2026-05-05 04:28 37.17866 16.50546 34132 ft 448 kts 302°
2026-05-05 04:29 37.21296 16.44011 34129 ft 448 kts 302°
2026-05-05 04:29 37.24719 16.37474 34129 ft 448 kts 302°
2026-05-05 04:30 37.28144 16.30922 34125 ft 448 kts 302°
2026-05-05 04:30 37.31559 16.24375 34127 ft 448 kts 302°
2026-05-05 04:31 37.34971 16.17824 34128 ft 448 kts 302°
2026-05-05 04:31 37.38382 16.11260 34121 ft 448 kts 302°
2026-05-05 04:32 37.41792 16.04685 34121 ft 449 kts 302°
2026-05-05 04:32 37.45196 15.98108 34117 ft 449 kts 302°
2026-05-05 04:33 37.48602 15.91514 34124 ft 450 kts 302°
2026-05-05 04:33 37.52008 15.84908 34124 ft 450 kts 302°
2026-05-05 04:34 37.55411 15.78294 34118 ft 450 kts 302°
2026-05-05 04:34 37.58811 15.71672 34118 ft 450 kts 302°
2026-05-05 04:35 37.62206 15.65049 34117 ft 449 kts 302°
2026-05-05 04:35 37.65591 15.58429 34113 ft 450 kts 302°
2026-05-05 04:36 37.68983 15.51783 34113 ft 450 kts 302°
2026-05-05 04:36 37.72350 15.45175 34107 ft 450 kts 302°
2026-05-05 04:37 37.75716 15.38504 34109 ft 450 kts 301°
2026-05-05 04:37 37.79067 15.31813 34108 ft 450 kts 301°
2026-05-05 04:38 37.82416 15.25119 34110 ft 451 kts 302°
2026-05-05 04:38 37.85774 15.18403 34108 ft 452 kts 302°
2026-05-05 04:39 37.89130 15.11682 34104 ft 452 kts 302°
2026-05-05 04:39 37.92483 15.04952 34107 ft 452 kts 301°
2026-05-05 04:40 37.95829 14.98221 34105 ft 451 kts 301°
2026-05-05 04:40 37.99168 14.91491 34098 ft 451 kts 302°
2026-05-05 04:41 38.02494 14.84770 34100 ft 449 kts 302°
2026-05-05 04:41 38.05810 14.78059 34102 ft 449 kts 302°
2026-05-05 04:42 38.09116 14.71355 34099 ft 449 kts 302°
2026-05-05 04:42 38.12422 14.64636 34104 ft 448 kts 302°
2026-05-05 04:43 38.15723 14.57914 34094 ft 448 kts 302°
2026-05-05 04:43 38.19020 14.51185 34095 ft 448 kts 302°
2026-05-05 04:44 38.22310 14.44456 34098 ft 448 kts 302°
2026-05-05 04:44 38.25572 14.37773 34092 ft 447 kts 301°
2026-05-05 04:45 38.28865 14.31010 34091 ft 447 kts 301°
2026-05-05 04:45 38.31583 14.25418 34091 ft 447 kts 301°
2026-05-05 04:46 38.35377 14.17595 34094 ft 446 kts 301°
2026-05-05 04:46 38.38101 14.11967 34094 ft 445 kts 301°
2026-05-05 04:47 38.41876 14.04152 34092 ft 445 kts 301°
2026-05-05 04:47 38.44591 13.98519 34091 ft 445 kts 301°
2026-05-05 04:48 38.47829 13.91790 34095 ft 445 kts 301°
2026-05-05 04:48 38.51061 13.85058 34091 ft 445 kts 301°
2026-05-05 04:49 38.54301 13.78298 34096 ft 446 kts 300°
2026-05-05 04:49 38.57517 13.71571 34092 ft 442 kts 300°
2026-05-05 04:50 38.60697 13.64904 34095 ft 442 kts 300°
2026-05-05 04:50 38.63911 13.58152 34095 ft 441 kts 300°
2026-05-05 04:51 38.67101 13.51438 34092 ft 441 kts 300°
2026-05-05 04:51 38.70289 13.44713 34091 ft 443 kts 300°
2026-05-05 04:52 38.73469 13.37991 34094 ft 445 kts 300°
2026-05-05 04:52 38.76670 13.31212 34094 ft 445 kts 300°
2026-05-05 04:53 38.79870 13.24421 34091 ft 445 kts 300°
2026-05-05 04:53 38.83062 13.17632 34100 ft 445 kts 299°
2026-05-05 04:54 38.86240 13.10859 34097 ft 441 kts 298°
2026-05-05 04:54 38.89592 13.04273 34094 ft 441 kts 302°
2026-05-05 04:55 38.93093 12.97805 34094 ft 441 kts 302°
2026-05-05 04:55 38.96572 12.91310 34094 ft 441 kts 301°
2026-05-05 04:56 39.00012 12.84784 34094 ft 441 kts 301°
2026-05-05 04:56 39.03430 12.78251 34094 ft 440 kts 301°
2026-05-05 04:57 39.06848 12.71705 34092 ft 441 kts 301°
2026-05-05 04:57 39.10267 12.65145 34091 ft 441 kts 301°
2026-05-05 04:58 39.13682 12.58590 34102 ft 440 kts 300°
2026-05-05 04:58 39.17087 12.52033 34090 ft 440 kts 300°
2026-05-05 04:59 39.20483 12.45476 34102 ft 440 kts 300°
2026-05-05 04:59 39.23874 12.38919 34099 ft 440 kts 299°
2026-05-05 05:00 39.27248 12.32380 34078 ft 441 kts 300°
2026-05-05 05:00 39.30647 12.25782 34097 ft 441 kts 299°
2026-05-05 05:01 39.34042 12.19178 34078 ft 441 kts 299°
2026-05-05 05:01 39.37429 12.12574 34078 ft 441 kts 299°
2026-05-05 05:02 39.40819 12.05954 34089 ft 441 kts 299°
2026-05-05 05:02 39.44213 11.99307 34081 ft 445 kts 298°
2026-05-05 05:03 39.47625 11.92615 34079 ft 446 kts 298°
2026-05-05 05:03 39.51034 11.85913 34074 ft 445 kts 298°
2026-05-05 05:04 39.54439 11.79209 34074 ft 445 kts 298°
2026-05-05 05:04 39.57833 11.72507 34071 ft 445 kts 298°
2026-05-05 05:05 39.61230 11.65788 34078 ft 445 kts 298°
2026-05-05 05:05 39.64612 11.59085 34065 ft 444 kts 298°
2026-05-05 05:06 39.67987 11.52379 34098 ft 444 kts 298°
2026-05-05 05:06 39.71338 11.45710 34070 ft 438 kts 298°
2026-05-05 05:07 39.74657 11.39089 34062 ft 437 kts 298°
2026-05-05 05:07 39.77967 11.32467 34061 ft 437 kts 298°
2026-05-05 05:08 39.81270 11.25851 34063 ft 435 kts 298°
2026-05-05 05:08 39.84550 11.19269 34063 ft 433 kts 298°
2026-05-05 05:09 39.87800 11.12727 34058 ft 433 kts 297°
2026-05-05 05:09 39.91062 11.06147 34060 ft 433 kts 297°
2026-05-05 05:10 39.94325 10.99554 34058 ft 433 kts 297°
2026-05-05 05:10 39.97582 10.92965 34063 ft 432 kts 297°
2026-05-05 05:11 40.00833 10.86369 34048 ft 432 kts 297°
2026-05-05 05:11 40.04077 10.79773 34044 ft 432 kts 297°
2026-05-05 05:12 40.07315 10.73174 34061 ft 432 kts 297°
2026-05-05 05:12 40.10551 10.66567 34039 ft 432 kts 297°
2026-05-05 05:13 40.13783 10.59954 34041 ft 432 kts 297°
2026-05-05 05:13 40.17011 10.53342 34043 ft 431 kts 296°
2026-05-05 05:14 40.20537 10.46950 34042 ft 435 kts 301°
2026-05-05 05:14 40.24262 10.40696 34040 ft 435 kts 301°
2026-05-05 05:15 40.27943 10.34418 34040 ft 435 kts 300°
2026-05-05 05:15 40.31577 10.28090 34043 ft 434 kts 300°
2026-05-05 05:16 40.35186 10.21752 34036 ft 434 kts 300°
2026-05-05 05:16 40.38796 10.15395 34034 ft 435 kts 300°
2026-05-05 05:17 40.42411 10.09024 34033 ft 435 kts 300°
2026-05-05 05:17 40.46028 10.02640 34031 ft 435 kts 300°
2026-05-05 05:18 40.49614 9.96302 34034 ft 435 kts 299°
2026-05-05 05:18 40.53221 9.89909 34029 ft 436 kts 299°
2026-05-05 05:19 40.56828 9.83501 34029 ft 436 kts 299°
2026-05-05 05:19 40.60439 9.77070 34027 ft 438 kts 298°
2026-05-05 05:20 40.64064 9.70603 34016 ft 439 kts 298°
2026-05-05 05:20 40.67691 9.64123 34031 ft 439 kts 298°
2026-05-05 05:21 40.71307 9.57646 34026 ft 438 kts 298°
2026-05-05 05:21 40.74920 9.51169 34023 ft 439 kts 298°
2026-05-05 05:22 40.78540 9.44661 34002 ft 440 kts 298°
2026-05-05 05:22 40.82171 9.38109 33997 ft 444 kts 298°
2026-05-05 05:23 40.85819 9.31523 34020 ft 444 kts 298°
2026-05-05 05:23 40.89469 9.24921 34010 ft 445 kts 298°
2026-05-05 05:24 40.93092 9.18353 34016 ft 445 kts 298°
2026-05-05 05:24 40.96730 9.11742 34016 ft 445 kts 298°
2026-05-05 05:25 41.00366 9.05113 34013 ft 446 kts 299°
2026-05-05 05:25 41.04024 8.98428 34009 ft 449 kts 299°
2026-05-05 05:26 41.07694 8.91721 34007 ft 449 kts 299°
2026-05-05 05:26 41.11356 8.85011 34001 ft 449 kts 299°
2026-05-05 05:27 41.15015 8.78291 34001 ft 449 kts 299°
2026-05-05 05:27 41.20490 8.68202 34000 ft 449 kts 299°
2026-05-05 05:28 41.24138 8.61462 34022 ft 449 kts 300°
2026-05-05 05:28 41.27838 8.54761 33998 ft 453 kts 303°
2026-05-05 05:29 41.32533 8.49018 33997 ft 468 kts 319°
2026-05-05 05:29 41.38533 8.45326 33993 ft 488 kts 338°
2026-05-05 05:30 41.45392 8.44279 33995 ft 503 kts 352°
2026-05-05 05:30 41.52415 8.44274 33988 ft 505 kts 354°
2026-05-05 05:31 41.59401 8.44386 33994 ft 505 kts 354°
2026-05-05 05:31 41.66425 8.44453 33983 ft 505 kts 353°
2026-05-05 05:32 41.73443 8.44479 33994 ft 504 kts 353°
2026-05-05 05:32 41.80273 8.43406 33982 ft 486 kts 335°
2026-05-05 05:33 41.83352 8.41698 33980 ft 474 kts 324°
2026-05-05 05:33 41.86046 8.39250 33987 ft 463 kts 313°
2026-05-05 05:33 41.88258 8.36196 33987 ft 453 kts 302°
2026-05-05 05:33 41.89940 8.32675 34005 ft 445 kts 291°
2026-05-05 05:34 41.92136 8.24968 33979 ft 443 kts 286°
2026-05-05 05:34 41.94245 8.17195 33973 ft 443 kts 286°
2026-05-05 05:35 41.96364 8.09422 33971 ft 443 kts 286°
2026-05-05 05:35 41.98875 8.01820 33973 ft 449 kts 296°
2026-05-05 05:36 42.02176 7.94672 33971 ft 451 kts 298°
2026-05-05 05:36 42.05044 7.88750 33964 ft 450 kts 298°
2026-05-05 05:37 42.08472 7.81702 33945 ft 450 kts 298°
2026-05-05 05:37 42.11883 7.74636 33964 ft 450 kts 298°
2026-05-05 05:38 42.15283 7.67548 33976 ft 450 kts 298°
2026-05-05 05:38 42.18657 7.60491 33955 ft 452 kts 298°
2026-05-05 05:39 42.22054 7.53372 33946 ft 451 kts 297°
2026-05-05 05:39 42.25447 7.46247 33947 ft 451 kts 297°
2026-05-05 05:40 42.28829 7.39128 33949 ft 451 kts 297°
2026-05-05 05:40 42.32208 7.31996 33948 ft 450 kts 297°
2026-05-05 05:41 42.35579 7.24866 33944 ft 450 kts 297°
2026-05-05 05:41 42.38946 7.17726 33956 ft 450 kts 297°
2026-05-05 05:42 42.42319 7.10556 33941 ft 453 kts 297°
2026-05-05 05:42 42.45699 7.03353 33941 ft 454 kts 297°
2026-05-05 05:43 42.49077 6.96141 33933 ft 453 kts 297°
2026-05-05 05:43 42.52452 6.88917 33933 ft 453 kts 297°
2026-05-05 05:44 42.55818 6.81693 33931 ft 453 kts 297°
2026-05-05 05:44 42.59171 6.74482 33930 ft 451 kts 297°
2026-05-05 05:45 42.62515 6.67270 33925 ft 451 kts 297°
2026-05-05 05:45 42.65849 6.60060 33924 ft 451 kts 297°
2026-05-05 05:46 42.69179 6.52843 33919 ft 451 kts 297°
2026-05-05 05:46 42.72506 6.45617 33939 ft 451 kts 296°
2026-05-05 05:47 42.75819 6.38404 33922 ft 449 kts 296°
2026-05-05 05:47 42.79124 6.31189 33922 ft 449 kts 296°
2026-05-05 05:48 42.82421 6.23973 33919 ft 449 kts 296°
2026-05-05 05:48 42.85710 6.16759 33938 ft 449 kts 296°
2026-05-05 05:49 42.89011 6.09496 33915 ft 452 kts 296°
2026-05-05 05:49 42.92319 6.02205 33933 ft 452 kts 296°
2026-05-05 05:50 42.95617 5.94920 33933 ft 451 kts 296°
2026-05-05 05:50 42.98888 5.87674 33930 ft 451 kts 296°
2026-05-05 05:51 43.02176 5.80371 33930 ft 451 kts 296°
2026-05-05 05:51 43.05457 5.73066 33930 ft 451 kts 296°
2026-05-05 05:52 43.08732 5.65759 33922 ft 450 kts 295°
2026-05-05 05:52 43.12006 5.58432 33919 ft 453 kts 295°
2026-05-05 05:53 43.15291 5.51060 33922 ft 454 kts 295°
2026-05-05 05:53 43.18575 5.43677 33918 ft 454 kts 295°
2026-05-05 05:54 43.21735 5.36219 33914 ft 449 kts 290°
2026-05-05 05:54 43.23624 5.28207 33915 ft 438 kts 275°
2026-05-05 05:55 43.24557 5.19977 33911 ft 436 kts 273°
2026-05-05 05:55 43.25337 5.11728 33913 ft 436 kts 273°
2026-05-05 05:56 43.26108 5.03480 33912 ft 436 kts 273°
2026-05-05 05:56 43.26894 4.95234 33945 ft 436 kts 273°
2026-05-05 05:57 43.27661 4.86998 33909 ft 434 kts 271°
2026-05-05 05:57 43.28137 4.78752 33909 ft 434 kts 271°
2026-05-05 05:58 43.29500 4.70625 33911 ft 444 kts 285°
2026-05-05 05:58 43.32220 4.62942 33911 ft 450 kts 291°
2026-05-05 05:59 43.35243 4.55389 33928 ft 454 kts 292°
2026-05-05 05:59 43.38320 4.47769 33907 ft 457 kts 292°
2026-05-05 06:00 43.41364 4.40105 33909 ft 456 kts 291°
2026-05-05 06:00 43.44351 4.32419 33907 ft 456 kts 291°
2026-05-05 06:01 43.47329 4.24721 33908 ft 456 kts 291°
2026-05-05 06:01 43.50310 4.17016 33927 ft 456 kts 291°
2026-05-05 06:02 43.53293 4.09294 33912 ft 457 kts 291°
2026-05-05 06:02 43.56273 4.01561 33938 ft 457 kts 291°
2026-05-05 06:03 43.59708 3.94048 33916 ft 469 kts 299°
2026-05-05 06:03 43.63570 3.86749 33917 ft 472 kts 300°
2026-05-05 06:04 43.67494 3.79480 33939 ft 472 kts 300°
2026-05-05 06:04 43.71415 3.72186 33916 ft 473 kts 300°
2026-05-05 06:05 43.75331 3.64863 33916 ft 474 kts 300°
2026-05-05 06:05 43.79242 3.57518 33926 ft 475 kts 300°
2026-05-05 06:06 43.83164 3.50129 33919 ft 477 kts 300°
2026-05-05 06:06 43.87093 3.42713 33926 ft 477 kts 300°
2026-05-05 06:07 43.91014 3.35295 33926 ft 477 kts 300°
2026-05-05 06:07 43.94931 3.27865 33925 ft 477 kts 300°
2026-05-05 06:08 43.98815 3.20475 33953 ft 477 kts 300°
2026-05-05 06:08 44.02743 3.12981 33941 ft 482 kts 300°
2026-05-05 06:09 44.06714 3.05387 33923 ft 483 kts 300°
2026-05-05 06:09 44.10661 2.97824 33941 ft 484 kts 300°
2026-05-05 06:10 44.14581 2.90291 33934 ft 484 kts 300°
2026-05-05 06:10 44.18523 2.82699 33942 ft 484 kts 300°
2026-05-05 06:11 44.22468 2.75077 33943 ft 486 kts 300°
2026-05-05 06:11 44.26426 2.67408 33942 ft 487 kts 300°
2026-05-05 06:12 44.30384 2.59717 33942 ft 489 kts 301°
2026-05-05 06:12 44.34351 2.51995 33937 ft 489 kts 301°
2026-05-05 06:13 44.38308 2.44270 33936 ft 489 kts 301°
2026-05-05 06:13 44.42265 2.36527 33943 ft 491 kts 301°
2026-05-05 06:14 44.46235 2.28730 33967 ft 492 kts 301°
2026-05-05 06:14 44.50204 2.20915 33942 ft 493 kts 301°
2026-05-05 06:15 44.54178 2.13076 33943 ft 493 kts 301°
2026-05-05 06:15 44.58144 2.05228 33943 ft 493 kts 301°
2026-05-05 06:16 44.62103 1.97372 33947 ft 495 kts 301°
2026-05-05 06:16 44.66081 1.89455 33960 ft 497 kts 301°
2026-05-05 06:17 44.70058 1.81519 33949 ft 496 kts 301°
2026-05-05 06:17 44.74023 1.73587 33948 ft 496 kts 301°
2026-05-05 06:18 44.77987 1.65636 33943 ft 496 kts 301°
2026-05-05 06:18 44.81940 1.57683 33945 ft 496 kts 301°
2026-05-05 06:19 44.85863 1.49769 33948 ft 496 kts 301°
2026-05-05 06:19 44.89624 1.41665 33945 ft 492 kts 294°
2026-05-05 06:20 44.92790 1.33125 33941 ft 491 kts 293°
2026-05-05 06:20 44.95851 1.24515 33941 ft 491 kts 293°
2026-05-05 06:21 44.98896 1.15884 33945 ft 491 kts 293°
2026-05-05 06:21 45.01943 1.07246 33933 ft 492 kts 293°
2026-05-05 06:22 45.04995 0.98592 33939 ft 492 kts 293°
2026-05-05 06:22 45.08043 0.89924 33941 ft 492 kts 293°
2026-05-05 06:23 45.10589 0.82663 33941 ft 492 kts 293°
2026-05-05 06:23 45.13602 0.74041 33944 ft 492 kts 293°
2026-05-05 06:24 45.16627 0.65356 33938 ft 491 kts 293°
2026-05-05 06:24 45.19644 0.56670 33938 ft 491 kts 293°
2026-05-05 06:25 45.22667 0.47934 33936 ft 494 kts 293°
2026-05-05 06:25 45.25690 0.39172 33932 ft 495 kts 293°
2026-05-05 06:26 45.28708 0.30393 33936 ft 494 kts 293°
2026-05-05 06:26 45.31719 0.21611 33935 ft 494 kts 293°
2026-05-05 06:27 45.36222 0.08417 33941 ft 494 kts 293°
2026-05-05 06:28 45.39214 -0.00386 33932 ft 494 kts 293°
2026-05-05 06:28 45.42203 -0.09211 33941 ft 495 kts 293°
2026-05-05 06:29 45.45168 -0.17993 33940 ft 495 kts 293°
2026-05-05 06:29 45.48146 -0.26840 33939 ft 495 kts 293°
2026-05-05 06:30 45.51118 -0.35700 33944 ft 495 kts 293°
2026-05-05 06:30 45.54082 -0.44565 33938 ft 495 kts 293°
2026-05-05 06:31 45.57039 -0.53444 33939 ft 495 kts 293°
2026-05-05 06:31 45.59994 -0.62343 33935 ft 497 kts 293°
2026-05-05 06:32 45.62949 -0.71274 33929 ft 498 kts 293°
2026-05-05 06:32 45.65900 -0.80222 33938 ft 498 kts 293°
2026-05-05 06:33 45.68837 -0.89159 33926 ft 496 kts 293°
2026-05-05 06:33 45.71768 -0.98109 33922 ft 496 kts 293°
2026-05-05 06:34 45.74688 -1.07054 33921 ft 496 kts 293°
2026-05-05 06:34 45.77602 -1.16015 33917 ft 497 kts 293°
2026-05-05 06:35 45.80515 -1.25003 33917 ft 497 kts 293°
2026-05-05 06:35 45.83417 -1.33985 33917 ft 497 kts 293°
2026-05-05 06:36 45.86313 -1.42981 33917 ft 497 kts 293°
2026-05-05 06:36 45.89202 -1.51987 33916 ft 497 kts 293°
2026-05-05 06:37 45.92082 -1.60996 33921 ft 497 kts 293°
2026-05-05 06:37 45.95246 -1.69839 33915 ft 498 kts 298°
2026-05-05 06:38 45.98719 -1.78463 33925 ft 500 kts 299°
2026-05-05 06:38 46.02246 -1.87097 33922 ft 500 kts 299°
2026-05-05 06:39 46.05761 -1.95725 33923 ft 500 kts 299°
2026-05-05 06:39 46.09240 -2.04316 33927 ft 500 kts 299°
2026-05-05 06:40 46.12733 -2.12979 33924 ft 500 kts 299°
2026-05-05 06:40 46.16217 -2.21646 33927 ft 500 kts 299°
2026-05-05 06:41 46.19701 -2.30341 33929 ft 500 kts 298°
2026-05-05 06:41 46.23179 -2.39048 33924 ft 501 kts 298°
2026-05-05 06:42 46.26650 -2.47767 33930 ft 501 kts 299°
2026-05-05 06:42 46.30114 -2.56493 33937 ft 500 kts 298°
2026-05-05 06:43 46.33571 -2.65231 33938 ft 500 kts 298°
2026-05-05 06:43 46.37027 -2.73995 33935 ft 501 kts 298°
2026-05-05 06:44 46.40477 -2.82771 33923 ft 501 kts 299°
2026-05-05 06:44 46.43918 -2.91552 33931 ft 502 kts 299°
2026-05-05 06:45 46.47357 -3.00355 33941 ft 501 kts 298°
2026-05-05 06:45 46.50789 -3.09168 33930 ft 502 kts 298°
2026-05-05 06:46 46.54213 -3.17991 33929 ft 502 kts 298°
2026-05-05 06:46 46.57632 -3.26831 33937 ft 501 kts 299°
2026-05-05 06:47 46.61040 -3.35670 33941 ft 501 kts 298°
2026-05-05 06:47 46.64441 -3.44518 33941 ft 501 kts 298°
2026-05-05 06:48 46.67838 -3.53385 33938 ft 501 kts 298°
2026-05-05 06:48 46.71204 -3.62200 33944 ft 501 kts 298°
2026-05-05 06:49 46.74581 -3.71075 33945 ft 501 kts 298°
2026-05-05 06:49 46.77954 -3.79966 33947 ft 501 kts 298°
2026-05-05 06:50 46.81318 -3.88866 33946 ft 500 kts 298°
2026-05-05 06:50 46.84673 -3.97767 33947 ft 500 kts 298°
2026-05-05 06:51 46.88022 -4.06685 33947 ft 500 kts 298°
2026-05-05 06:51 46.91360 -4.15605 33950 ft 500 kts 298°
2026-05-05 06:52 46.94693 -4.24536 33952 ft 500 kts 298°
2026-05-05 06:52 46.98015 -4.33470 33952 ft 500 kts 298°
2026-05-05 06:53 47.01331 -4.42415 33952 ft 500 kts 298°
2026-05-05 06:53 47.04642 -4.51379 33952 ft 500 kts 298°
2026-05-05 06:54 47.07942 -4.60343 33952 ft 500 kts 298°
2026-05-05 06:54 47.11253 -4.69255 33958 ft 501 kts 300°
2026-05-05 06:55 47.14729 -4.78209 33960 ft 501 kts 300°
2026-05-05 06:55 47.18165 -4.87037 33960 ft 501 kts 300°
2026-05-05 06:56 47.21601 -4.95954 33969 ft 501 kts 300°
2026-05-05 06:56 47.25019 -5.04889 33963 ft 500 kts 300°
2026-05-05 06:57 47.28421 -5.13820 33983 ft 500 kts 300°
2026-05-05 06:57 47.31811 -5.22748 33966 ft 499 kts 300°
2026-05-05 06:58 47.35191 -5.31676 33968 ft 499 kts 300°
2026-05-05 06:58 47.38565 -5.40620 33982 ft 499 kts 300°
2026-05-05 06:59 47.41929 -5.49563 33989 ft 497 kts 300°
2026-05-05 06:59 47.45274 -5.58489 33987 ft 496 kts 300°
2026-05-05 07:00 47.48611 -5.67423 33986 ft 496 kts 300°
2026-05-05 07:00 47.51937 -5.76357 33986 ft 496 kts 300°
2026-05-05 07:01 47.55261 -5.85313 33987 ft 496 kts 300°
2026-05-05 07:01 47.58572 -5.94267 33985 ft 496 kts 300°
2026-05-05 07:02 47.61876 -6.03231 33989 ft 496 kts 300°
2026-05-05 07:02 47.65174 -6.12210 33989 ft 496 kts 300°
2026-05-05 07:03 47.68460 -6.21188 33994 ft 495 kts 300°
2026-05-05 07:03 47.71739 -6.30175 33997 ft 495 kts 300°
2026-05-05 07:04 47.75010 -6.39171 33993 ft 493 kts 300°
2026-05-05 07:04 47.78260 -6.48142 33997 ft 493 kts 300°
2026-05-05 07:05 47.81499 -6.57109 34001 ft 493 kts 300°
2026-05-05 07:05 47.84733 -6.66092 34003 ft 492 kts 300°
2026-05-05 07:06 47.87955 -6.75078 34002 ft 491 kts 300°
2026-05-05 07:06 47.91162 -6.84051 34004 ft 489 kts 300°
2026-05-05 07:07 47.94349 -6.92999 34008 ft 488 kts 300°
2026-05-05 07:07 47.97138 -7.02147 34012 ft 489 kts 294°
2026-05-05 07:08 47.99590 -7.11635 34011 ft 490 kts 293°
2026-05-05 07:08 48.01977 -7.21163 34020 ft 489 kts 292°
2026-05-05 07:09 48.04347 -7.30666 34015 ft 487 kts 293°
2026-05-05 07:09 48.06712 -7.40150 34019 ft 487 kts 293°
2026-05-05 07:10 48.09075 -7.49643 34020 ft 487 kts 293°
2026-05-05 07:10 48.11427 -7.59135 34024 ft 487 kts 293°
2026-05-05 07:11 48.13772 -7.68635 34017 ft 487 kts 293°
2026-05-05 07:11 48.16107 -7.78144 34030 ft 486 kts 293°
2026-05-05 07:12 48.18434 -7.87655 34024 ft 486 kts 293°
2026-05-05 07:12 48.20361 -7.95564 34042 ft 486 kts 293°
2026-05-05 07:13 48.22670 -8.05080 34040 ft 486 kts 293°
2026-05-05 07:13 48.24974 -8.14612 34032 ft 486 kts 293°
2026-05-05 07:14 48.27265 -8.24136 34041 ft 484 kts 293°
2026-05-05 07:14 48.29542 -8.33642 34043 ft 484 kts 293°
2026-05-05 07:15 48.31811 -8.43153 34040 ft 484 kts 293°
2026-05-05 07:15 48.34072 -8.52673 34040 ft 484 kts 293°
2026-05-05 07:16 48.36325 -8.62201 34048 ft 483 kts 293°
2026-05-05 07:16 48.38560 -8.71709 34045 ft 481 kts 294°
2026-05-05 07:17 48.40781 -8.81184 34056 ft 480 kts 294°
2026-05-05 07:17 48.42997 -8.90670 34057 ft 480 kts 294°
2026-05-05 07:18 48.45202 -9.00156 34054 ft 480 kts 294°
2026-05-05 07:18 48.47399 -9.09654 34059 ft 480 kts 294°
2026-05-05 07:19 48.49590 -9.19165 34064 ft 480 kts 294°
2026-05-05 07:19 48.51757 -9.28617 34064 ft 480 kts 294°
2026-05-05 07:20 48.53929 -9.38132 34067 ft 480 kts 294°
2026-05-05 07:20 48.56096 -9.47670 34067 ft 480 kts 294°
2026-05-05 07:21 48.58256 -9.57215 34048 ft 480 kts 294°
2026-05-05 07:21 48.60398 -9.66731 34078 ft 477 kts 294°
2026-05-05 07:22 48.62525 -9.76220 34080 ft 476 kts 294°
2026-05-05 07:22 48.64643 -9.85706 34080 ft 476 kts 294°
2026-05-05 07:23 48.66754 -9.95204 34087 ft 476 kts 294°
2026-05-05 07:23 48.68854 -10.04694 34088 ft 476 kts 294°
2026-05-05 07:24 48.70945 -10.14190 34089 ft 474 kts 293°
2026-05-05 07:24 48.73019 -10.23663 34097 ft 473 kts 293°
2026-05-05 07:25 48.75085 -10.33132 34095 ft 473 kts 293°
2026-05-05 07:25 48.77144 -10.42610 34102 ft 473 kts 293°
2026-05-05 07:26 48.79194 -10.52094 34104 ft 473 kts 293°
2026-05-05 07:26 48.81235 -10.61578 34112 ft 472 kts 292°
2026-05-05 07:27 48.83264 -10.71047 34119 ft 472 kts 291°
2026-05-05 07:27 48.85284 -10.80522 34109 ft 472 kts 291°
2026-05-05 07:28 48.87283 -10.89945 34105 ft 472 kts 291°
2026-05-05 07:28 48.89290 -10.99444 34112 ft 472 kts 291°
2026-05-05 07:29 48.91286 -11.08936 34117 ft 470 kts 291°
2026-05-05 07:29 48.93265 -11.18400 34130 ft 469 kts 291°
2026-05-05 07:30 48.95235 -11.27858 34129 ft 469 kts 291°
2026-05-05 07:30 48.98176 -11.42062 34138 ft 469 kts 290°
2026-05-05 07:31 49.00126 -11.51534 34127 ft 469 kts 289°
2026-05-05 07:31 49.02062 -11.60995 34141 ft 467 kts 289°
2026-05-05 07:32 49.03990 -11.70450 34148 ft 467 kts 289°
2026-05-05 07:32 49.05927 -11.79904 34146 ft 467 kts 291°
2026-05-05 07:33 49.08175 -11.89166 34146 ft 466 kts 294°
2026-05-05 07:33 49.10536 -11.98373 34151 ft 466 kts 293°
2026-05-05 07:34 49.12847 -12.07610 34151 ft 465 kts 292°
2026-05-05 07:34 49.15109 -12.16866 34152 ft 465 kts 292°
2026-05-05 07:35 49.17351 -12.26130 34154 ft 465 kts 292°
2026-05-05 07:35 49.19587 -12.35405 34160 ft 465 kts 292°
2026-05-05 07:36 49.21803 -12.44627 34160 ft 465 kts 292°
2026-05-05 07:36 49.24026 -12.53914 34165 ft 465 kts 291°
2026-05-05 07:37 49.26237 -12.63189 34163 ft 464 kts 291°
2026-05-05 07:37 49.28441 -12.72475 34170 ft 464 kts 291°
2026-05-05 07:38 49.30639 -12.81774 34167 ft 464 kts 291°
2026-05-05 07:38 49.32829 -12.91082 34168 ft 464 kts 291°
2026-05-05 07:39 49.35011 -13.00391 34173 ft 464 kts 291°
2026-05-05 07:39 49.37183 -13.09705 34175 ft 463 kts 291°
2026-05-05 07:40 49.39348 -13.19025 34181 ft 463 kts 291°
2026-05-05 07:40 49.41504 -13.28344 34179 ft 463 kts 291°
2026-05-05 07:41 49.43652 -13.37674 34182 ft 463 kts 291°
2026-05-05 07:41 49.45794 -13.47014 34181 ft 464 kts 291°
2026-05-05 07:42 49.47928 -13.56367 34176 ft 463 kts 291°
2026-05-05 07:42 49.50051 -13.65710 34201 ft 462 kts 291°
2026-05-05 07:43 49.52161 -13.75034 34192 ft 462 kts 291°
2026-05-05 07:43 49.54266 -13.84377 34188 ft 462 kts 291°
2026-05-05 07:44 49.56362 -13.93722 34189 ft 461 kts 290°
2026-05-05 07:44 49.58449 -14.03072 34188 ft 461 kts 290°
2026-05-05 07:45 49.60527 -14.12420 34193 ft 461 kts 290°
2026-05-05 07:45 49.62600 -14.21788 34197 ft 462 kts 290°
2026-05-05 07:46 49.64666 -14.31168 34193 ft 462 kts 290°
2026-05-05 07:46 49.66708 -14.40480 34201 ft 461 kts 290°
2026-05-05 07:47 49.68757 -14.49867 34202 ft 461 kts 290°
2026-05-05 07:47 49.70797 -14.59253 34215 ft 461 kts 290°
2026-05-05 07:48 49.72825 -14.68629 34200 ft 460 kts 290°
2026-05-05 07:48 49.74842 -14.78000 34214 ft 459 kts 290°
2026-05-05 07:49 49.76849 -14.87363 34219 ft 459 kts 290°
2026-05-05 07:49 49.78849 -14.96733 34218 ft 459 kts 290°
2026-05-05 07:50 49.80842 -15.06119 34225 ft 459 kts 290°
2026-05-05 07:50 49.82826 -15.15505 34217 ft 459 kts 290°
2026-05-05 07:51 49.84801 -15.24893 34226 ft 458 kts 290°
2026-05-05 07:51 49.86767 -15.34278 34224 ft 458 kts 290°
2026-05-05 07:52 49.88722 -15.43656 34234 ft 457 kts 290°
2026-05-05 07:52 49.90670 -15.53046 34228 ft 457 kts 289°
2026-05-05 07:53 49.92610 -15.62440 34233 ft 457 kts 289°
2026-05-05 07:53 49.94528 -15.71770 34234 ft 456 kts 289°
2026-05-05 07:54 49.96459 -15.81212 34236 ft 456 kts 289°
2026-05-05 07:54 49.98360 -15.90545 34244 ft 456 kts 289°
2026-05-05 07:55 50.00264 -15.99940 34244 ft 456 kts 289°
2026-05-05 07:55 50.02161 -16.09348 34249 ft 456 kts 289°
2026-05-05 07:56 50.04050 -16.18758 34244 ft 456 kts 288°
2026-05-05 07:56 50.05924 -16.28147 34255 ft 453 kts 288°
2026-05-05 07:57 50.07786 -16.37510 34255 ft 453 kts 288°
2026-05-05 07:57 50.09642 -16.46890 34254 ft 454 kts 288°
2026-05-05 07:58 50.11493 -16.56296 34260 ft 454 kts 288°
2026-05-05 07:58 50.13334 -16.65691 34264 ft 453 kts 288°
2026-05-05 07:59 50.15164 -16.75081 34264 ft 453 kts 288°
2026-05-05 07:59 50.16989 -16.84486 34265 ft 453 kts 288°
2026-05-05 08:00 50.18807 -16.93905 34273 ft 453 kts 288°
2026-05-05 08:00 50.20618 -17.03332 34277 ft 453 kts 288°
2026-05-05 08:01 50.22116 -17.11169 34274 ft 453 kts 287°
2026-05-05 08:01 50.24214 -17.22196 34280 ft 453 kts 287°
2026-05-05 08:02 50.25702 -17.30055 34279 ft 453 kts 287°
2026-05-05 08:02 50.27771 -17.41039 34281 ft 453 kts 287°
2026-05-05 08:03 50.29539 -17.50481 34283 ft 453 kts 287°
2026-05-05 08:03 50.31298 -17.59922 34292 ft 452 kts 287°
2026-05-05 08:04 50.32769 -17.67850 34285 ft 452 kts 287°
2026-05-05 08:04 50.34515 -17.77310 34293 ft 452 kts 287°
2026-05-05 08:05 50.36255 -17.86777 34293 ft 452 kts 286°
2026-05-05 08:05 50.37984 -17.96242 34292 ft 452 kts 286°
2026-05-05 08:06 50.39706 -18.05719 34314 ft 452 kts 286°
2026-05-05 08:06 50.41422 -18.15204 34302 ft 452 kts 286°
2026-05-05 08:07 50.43127 -18.24684 34303 ft 452 kts 285°
2026-05-05 08:07 50.44813 -18.34106 34303 ft 452 kts 285°
2026-05-05 08:08 50.46503 -18.43599 34307 ft 452 kts 285°
2026-05-05 08:08 50.48184 -18.53094 34305 ft 452 kts 285°
2026-05-05 08:09 50.49859 -18.62601 34310 ft 452 kts 285°
2026-05-05 08:09 50.51526 -18.72116 34311 ft 452 kts 285°
2026-05-05 08:10 50.53184 -18.81631 34317 ft 451 kts 285°
2026-05-05 08:10 50.54833 -18.91146 34327 ft 451 kts 285°
2026-05-05 08:11 50.56475 -19.00667 34313 ft 451 kts 285°
2026-05-05 08:11 50.58110 -19.10204 34317 ft 451 kts 285°
2026-05-05 08:12 50.59736 -19.19744 34322 ft 451 kts 284°
2026-05-05 08:12 50.61356 -19.29293 34322 ft 451 kts 284°
2026-05-05 08:13 50.62967 -19.38847 34320 ft 451 kts 284°
2026-05-05 08:13 50.64571 -19.48410 34327 ft 451 kts 284°
2026-05-05 08:14 50.66165 -19.57965 34322 ft 451 kts 284°
2026-05-05 08:14 50.67750 -19.67527 34325 ft 451 kts 284°
2026-05-05 08:15 50.69328 -19.77093 34328 ft 451 kts 284°
2026-05-05 08:15 50.70897 -19.86666 34333 ft 451 kts 284°
2026-05-05 08:16 50.72459 -19.96243 34330 ft 451 kts 284°
2026-05-05 08:16 50.74014 -20.05833 34331 ft 451 kts 283°
2026-05-05 08:17 50.75559 -20.15415 34333 ft 450 kts 283°
2026-05-05 08:17 50.77096 -20.25005 34333 ft 450 kts 283°
2026-05-05 08:18 50.78615 -20.34540 34336 ft 450 kts 283°
2026-05-05 08:18 50.80136 -20.44136 34336 ft 450 kts 283°
2026-05-05 08:19 50.81650 -20.53752 34344 ft 450 kts 283°
2026-05-05 08:19 50.83156 -20.63366 34342 ft 450 kts 283°
2026-05-05 08:20 50.84654 -20.72989 34346 ft 451 kts 283°
2026-05-05 08:20 50.86145 -20.82627 34346 ft 451 kts 283°
2026-05-05 08:21 50.87627 -20.92260 34349 ft 451 kts 282°
2026-05-05 08:21 50.89102 -21.01905 34347 ft 450 kts 282°
2026-05-05 08:22 50.90567 -21.11548 34347 ft 450 kts 282°
2026-05-05 08:22 50.92022 -21.21185 34350 ft 450 kts 282°
2026-05-05 08:23 50.93473 -21.30847 34349 ft 451 kts 282°
2026-05-05 08:23 50.94917 -21.40526 34356 ft 451 kts 282°
2026-05-05 08:24 50.96353 -21.50203 34353 ft 451 kts 282°
2026-05-05 08:24 50.97779 -21.59882 34356 ft 451 kts 282°
2026-05-05 08:25 50.99198 -21.69570 34355 ft 450 kts 282°
2026-05-05 08:25 51.00607 -21.79254 34352 ft 450 kts 282°
2026-05-05 08:26 51.02007 -21.88930 34358 ft 450 kts 282°
2026-05-05 08:26 51.03399 -21.98618 34358 ft 450 kts 282°
2026-05-05 08:27 51.04782 -22.08301 34355 ft 450 kts 282°
2026-05-05 08:27 51.06158 -22.17998 34356 ft 450 kts 282°
2026-05-05 08:28 51.07525 -22.27691 34359 ft 449 kts 282°
2026-05-05 08:28 51.08883 -22.37397 34368 ft 450 kts 283°
2026-05-05 08:29 51.10234 -22.47110 34357 ft 450 kts 283°
2026-05-05 08:30 51.12249 -22.61701 34365 ft 450 kts 283°
2026-05-05 08:30 51.13582 -22.71433 34365 ft 450 kts 283°
2026-05-05 08:31 51.14906 -22.81169 34362 ft 450 kts 283°
2026-05-05 08:31 51.16213 -22.90850 34343 ft 450 kts 283°
2026-05-05 08:32 51.17523 -23.00606 34358 ft 451 kts 283°
2026-05-05 08:32 51.18824 -23.10374 34359 ft 451 kts 283°
2026-05-05 08:33 51.20118 -23.20151 34359 ft 451 kts 283°
2026-05-05 08:33 51.21404 -23.29937 34359 ft 451 kts 283°
2026-05-05 08:34 51.22681 -23.39724 34359 ft 451 kts 283°
2026-05-05 08:34 51.23951 -23.49517 34346 ft 451 kts 283°
2026-05-05 08:35 51.25211 -23.59316 34362 ft 451 kts 283°
2026-05-05 08:35 51.26466 -23.69130 34362 ft 451 kts 283°
2026-05-05 08:36 51.27713 -23.78953 34364 ft 451 kts 283°
2026-05-05 08:36 51.28950 -23.88771 34365 ft 450 kts 283°
2026-05-05 08:37 51.30176 -23.98570 34368 ft 450 kts 283°
2026-05-05 08:37 51.31393 -24.08373 34350 ft 450 kts 283°
2026-05-05 08:38 51.32600 -24.18160 34364 ft 448 kts 283°
2026-05-05 08:38 51.33798 -24.27944 34367 ft 448 kts 283°
2026-05-05 08:39 51.34986 -24.37725 34364 ft 448 kts 283°
2026-05-05 08:39 51.36167 -24.47513 34367 ft 448 kts 282°
2026-05-05 08:40 51.37340 -24.57311 34369 ft 448 kts 282°
2026-05-05 08:40 51.38502 -24.67091 34370 ft 447 kts 282°
2026-05-05 08:41 51.39653 -24.76856 34371 ft 446 kts 282°
2026-05-05 08:41 51.40794 -24.86602 34371 ft 445 kts 282°
2026-05-05 08:42 51.41926 -24.96348 34369 ft 445 kts 282°
2026-05-05 08:42 51.43050 -25.06096 34365 ft 445 kts 282°
2026-05-05 08:43 51.44165 -25.15844 34371 ft 445 kts 282°
2026-05-05 08:43 51.45283 -25.25690 34533 ft 451 kts 282°
2026-05-05 08:43 51.45841 -25.30635 34827 ft 451 kts 282°
2026-05-05 08:44 51.46397 -25.35580 35128 ft 450 kts 282°
2026-05-05 08:44 51.46950 -25.40526 35400 ft 450 kts 282°
2026-05-05 08:44 51.47501 -25.45468 35645 ft 450 kts 282°
2026-05-05 08:44 51.48043 -25.50348 35885 ft 451 kts 282°
2026-05-05 08:45 51.48590 -25.55298 36121 ft 451 kts 282°
2026-05-05 08:45 51.49135 -25.60248 36358 ft 451 kts 282°
2026-05-05 08:45 51.49678 -25.65200 36579 ft 451 kts 282°
2026-05-05 08:45 51.50220 -25.70160 36796 ft 451 kts 282°
2026-05-05 08:46 51.50760 -25.75119 37013 ft 451 kts 282°
2026-05-05 08:46 51.51298 -25.80085 37223 ft 451 kts 282°
2026-05-05 08:46 51.51834 -25.85053 37431 ft 452 kts 282°
2026-05-05 08:46 51.52366 -25.90010 37704 ft 449 kts 282°
2026-05-05 08:47 51.52891 -25.94928 38016 ft 447 kts 282°
2026-05-05 08:47 51.53416 -25.99853 38188 ft 447 kts 282°
2026-05-05 08:47 51.53939 -26.04775 38331 ft 448 kts 282°
2026-05-05 08:48 51.54990 -26.14721 38371 ft 455 kts 282°
2026-05-05 08:48 51.56040 -26.24760 38373 ft 455 kts 282°
2026-05-05 08:49 51.57078 -26.34782 38373 ft 455 kts 282°
2026-05-05 08:49 51.58110 -26.44827 38374 ft 455 kts 282°
2026-05-05 08:50 51.58958 -26.53155 38370 ft 453 kts 282°
2026-05-05 08:50 51.59968 -26.63145 38369 ft 452 kts 282°
2026-05-05 08:51 51.60969 -26.73126 38383 ft 452 kts 282°
2026-05-05 08:51 51.61962 -26.83121 38369 ft 452 kts 282°
2026-05-05 08:52 51.62946 -26.93120 38372 ft 453 kts 282°
2026-05-05 08:52 51.63923 -27.03136 38375 ft 453 kts 282°
2026-05-05 08:53 51.64889 -27.13135 38376 ft 451 kts 282°
2026-05-05 08:53 51.65843 -27.23106 38369 ft 450 kts 282°
2026-05-05 08:54 51.66787 -27.33058 38369 ft 450 kts 282°
2026-05-05 08:54 51.67724 -27.43023 38374 ft 450 kts 282°
2026-05-05 08:55 51.68652 -27.52994 38368 ft 450 kts 282°
2026-05-05 08:55 51.69573 -27.62971 38365 ft 450 kts 281°
2026-05-05 08:56 51.70483 -27.72935 38357 ft 448 kts 282°
2026-05-05 08:56 51.71380 -27.82863 38363 ft 447 kts 281°
2026-05-05 08:57 51.72268 -27.92781 38358 ft 447 kts 281°
2026-05-05 08:57 51.73148 -28.02694 38357 ft 447 kts 281°
2026-05-05 08:58 51.74013 -28.12548 38360 ft 447 kts 281°
2026-05-05 08:58 51.74882 -28.22544 38356 ft 447 kts 281°
2026-05-05 08:59 51.75731 -28.32406 38349 ft 446 kts 281°
2026-05-05 08:59 51.76575 -28.42318 38361 ft 445 kts 281°
2026-05-05 09:00 51.77410 -28.52217 38356 ft 445 kts 281°
2026-05-05 09:00 51.78238 -28.62133 38353 ft 445 kts 281°
2026-05-05 09:01 51.79057 -28.72048 38353 ft 445 kts 281°
2026-05-05 09:01 51.79868 -28.81971 38349 ft 446 kts 281°
2026-05-05 09:02 51.80670 -28.91901 38353 ft 446 kts 281°
2026-05-05 09:02 51.81465 -29.01837 38345 ft 446 kts 281°
2026-05-05 09:03 51.82250 -29.11763 38345 ft 446 kts 281°
2026-05-05 09:03 51.83028 -29.21707 38343 ft 446 kts 281°
2026-05-05 09:04 51.83798 -29.31660 38344 ft 446 kts 281°
2026-05-05 09:04 51.84560 -29.41624 38339 ft 446 kts 281°
2026-05-05 09:05 51.85313 -29.51582 38317 ft 446 kts 280°
2026-05-05 09:05 51.86056 -29.61525 38345 ft 445 kts 280°
2026-05-05 09:06 51.86789 -29.71453 38344 ft 444 kts 280°
2026-05-05 09:06 51.87515 -29.81386 38338 ft 444 kts 280°
2026-05-05 09:07 51.88231 -29.91316 38334 ft 444 kts 280°
2026-05-05 09:07 51.88941 -30.01267 38335 ft 445 kts 280°
2026-05-05 09:08 51.89643 -30.11235 38303 ft 446 kts 279°
2026-05-05 09:08 51.90334 -30.21168 38337 ft 443 kts 279°
2026-05-05 09:09 51.91012 -30.31061 38332 ft 442 kts 279°
2026-05-05 09:09 51.91684 -30.40965 38333 ft 442 kts 279°
2026-05-05 09:10 51.92348 -30.50862 38333 ft 442 kts 279°
2026-05-05 09:10 51.93002 -30.60761 38333 ft 442 kts 279°
2026-05-05 09:11 51.93644 -30.70598 38334 ft 442 kts 279°
2026-05-05 09:11 51.94283 -30.80508 38332 ft 441 kts 279°
2026-05-05 09:12 51.94911 -30.90390 38333 ft 440 kts 279°
2026-05-05 09:12 51.95529 -31.00261 38333 ft 440 kts 278°
2026-05-05 09:13 51.96140 -31.10142 38329 ft 441 kts 278°
2026-05-05 09:13 51.96744 -31.20036 38330 ft 441 kts 278°
2026-05-05 09:14 51.97339 -31.29924 38332 ft 441 kts 278°
2026-05-05 09:14 51.97925 -31.39821 38331 ft 441 kts 278°
2026-05-05 09:15 51.98504 -31.49721 38328 ft 441 kts 278°
2026-05-05 09:15 51.99075 -31.59633 38328 ft 442 kts 278°
2026-05-05 09:16 51.99638 -31.69558 38325 ft 442 kts 278°
2026-05-05 09:16 52.00192 -31.79492 38321 ft 442 kts 278°
2026-05-05 09:17 52.00738 -31.89418 38321 ft 442 kts 278°
2026-05-05 09:17 52.01277 -31.99359 38306 ft 442 kts 277°
2026-05-05 09:18 52.01806 -32.09293 38319 ft 442 kts 277°
2026-05-05 09:18 52.02324 -32.19163 38324 ft 441 kts 277°
2026-05-05 09:19 52.02837 -32.29096 38318 ft 442 kts 277°
2026-05-05 09:19 52.03341 -32.39040 38314 ft 442 kts 277°
2026-05-05 09:20 52.03838 -32.48997 38309 ft 442 kts 276°
2026-05-05 09:20 52.04327 -32.58963 38293 ft 442 kts 276°
2026-05-05 09:21 52.04806 -32.68907 38303 ft 441 kts 276°
2026-05-05 09:21 52.05276 -32.78850 38314 ft 441 kts 275°
2026-05-05 09:22 52.05738 -32.88794 38302 ft 441 kts 275°
2026-05-05 09:22 52.06192 -32.98742 38315 ft 441 kts 275°
2026-05-05 09:23 52.06638 -33.08694 38296 ft 442 kts 275°
2026-05-05 09:23 52.07076 -33.18662 38294 ft 443 kts 275°
2026-05-05 09:24 52.07506 -33.28666 38299 ft 445 kts 274°
2026-05-05 09:24 52.07930 -33.38718 38296 ft 446 kts 274°
2026-05-05 09:25 52.08347 -33.48783 38285 ft 446 kts 274°
2026-05-05 09:25 52.08755 -33.58851 38288 ft 446 kts 274°
2026-05-05 09:26 52.09155 -33.68930 38286 ft 446 kts 274°
2026-05-05 09:26 52.09545 -33.78998 38279 ft 447 kts 274°
2026-05-05 09:27 52.09929 -33.89099 38282 ft 450 kts 273°
2026-05-05 09:27 52.10305 -33.99251 38272 ft 454 kts 273°
2026-05-05 09:28 52.10676 -34.09490 38271 ft 454 kts 273°
2026-05-05 09:28 52.11038 -34.19742 38270 ft 454 kts 272°
2026-05-05 09:29 52.11391 -34.29996 38266 ft 454 kts 272°
2026-05-05 09:29 52.11735 -34.40242 38267 ft 454 kts 272°
2026-05-05 09:30 52.12071 -34.50510 38258 ft 456 kts 271°
2026-05-05 09:30 52.12399 -34.60829 38257 ft 457 kts 271°
2026-05-05 09:31 52.12719 -34.71174 38247 ft 459 kts 271°
2026-05-05 09:31 52.13032 -34.81569 38241 ft 460 kts 271°
2026-05-05 09:32 52.13335 -34.91969 38236 ft 460 kts 271°
2026-05-05 09:32 52.13630 -35.02372 38245 ft 460 kts 271°
2026-05-05 09:33 52.13915 -35.12779 38233 ft 461 kts 270°
2026-05-05 09:33 52.14191 -35.23226 38232 ft 462 kts 270°
2026-05-05 09:34 52.14460 -35.33684 38218 ft 462 kts 270°
2026-05-05 09:34 52.14719 -35.44154 38229 ft 463 kts 270°
2026-05-05 09:35 52.14969 -35.54650 38207 ft 465 kts 269°
2026-05-05 09:35 52.15329 -35.70451 38220 ft 466 kts 269°
2026-05-05 09:36 52.15558 -35.81016 38201 ft 467 kts 269°
2026-05-05 09:36 52.15775 -35.91519 38195 ft 468 kts 268°
2026-05-05 09:37 52.15985 -36.02112 38185 ft 468 kts 268°
2026-05-05 09:37 52.16186 -36.12694 38188 ft 468 kts 268°
2026-05-05 09:38 52.16377 -36.23283 38178 ft 468 kts 268°
2026-05-05 09:38 52.16530 -36.32188 38194 ft 470 kts 268°
2026-05-05 09:39 52.16704 -36.42844 38170 ft 472 kts 268°
2026-05-05 09:39 52.16869 -36.53463 38159 ft 472 kts 267°
2026-05-05 09:40 52.17025 -36.64147 38159 ft 472 kts 267°
2026-05-05 09:40 52.17173 -36.74900 38151 ft 472 kts 267°
2026-05-05 09:41 52.17308 -36.85511 38143 ft 472 kts 267°
2026-05-05 09:41 52.17435 -36.96200 38153 ft 472 kts 267°
2026-05-05 09:42 52.17553 -37.06894 38140 ft 473 kts 266°
2026-05-05 09:42 52.17660 -37.17638 38131 ft 474 kts 266°
2026-05-05 09:43 52.17759 -37.28388 38127 ft 474 kts 266°
2026-05-05 09:43 52.17848 -37.39135 38127 ft 474 kts 266°
2026-05-05 09:44 52.17927 -37.49882 38115 ft 474 kts 266°
2026-05-05 09:44 52.17996 -37.60621 38117 ft 474 kts 266°
2026-05-05 09:45 52.18055 -37.71362 38110 ft 474 kts 266°
2026-05-05 09:45 52.18105 -37.82096 38119 ft 474 kts 266°
2026-05-05 09:46 52.18144 -37.92863 38112 ft 476 kts 266°
2026-05-05 09:46 52.18174 -38.03657 38108 ft 476 kts 266°
2026-05-05 09:47 52.18195 -38.14446 38086 ft 476 kts 265°
2026-05-05 09:47 52.18205 -38.25233 38096 ft 476 kts 266°
2026-05-05 09:48 52.18206 -38.36029 38085 ft 476 kts 266°
2026-05-05 09:48 52.18197 -38.46820 38083 ft 476 kts 265°
2026-05-05 09:49 52.18178 -38.57606 38085 ft 476 kts 265°
2026-05-05 09:49 52.18149 -38.68391 38085 ft 476 kts 265°
2026-05-05 09:50 52.18110 -38.79171 38079 ft 476 kts 265°
2026-05-05 09:50 52.18061 -38.89961 38079 ft 476 kts 266°
2026-05-05 09:51 52.18003 -39.00742 38078 ft 476 kts 265°
2026-05-05 09:51 52.17935 -39.11535 38078 ft 476 kts 265°
2026-05-05 09:52 52.17858 -39.22322 38081 ft 476 kts 265°
2026-05-05 09:52 52.17770 -39.33095 38082 ft 476 kts 265°
2026-05-05 09:53 52.17672 -39.43820 38082 ft 478 kts 265°
2026-05-05 09:53 52.17564 -39.54648 38074 ft 478 kts 265°
2026-05-05 09:54 52.17448 -39.65456 38077 ft 476 kts 265°
2026-05-05 09:54 52.17321 -39.76238 38079 ft 476 kts 265°
2026-05-05 09:55 52.17183 -39.87022 38081 ft 476 kts 264°
2026-05-05 09:55 52.17036 -39.97798 38083 ft 476 kts 264°
2026-05-05 09:56 52.16879 -40.08578 38090 ft 476 kts 264°
2026-05-05 09:56 52.16713 -40.19353 38105 ft 476 kts 264°
2026-05-05 09:57 52.16534 -40.30143 38079 ft 478 kts 264°
2026-05-05 09:57 52.16346 -40.40963 38072 ft 478 kts 264°
2026-05-05 09:58 52.16150 -40.51786 38075 ft 478 kts 264°
2026-05-05 09:58 52.15943 -40.62606 38077 ft 478 kts 264°
2026-05-05 09:59 52.15727 -40.73427 38083 ft 478 kts 264°
2026-05-05 09:59 52.15499 -40.84261 38073 ft 479 kts 264°
2026-05-05 10:00 52.15262 -40.95108 38074 ft 479 kts 264°
2026-05-05 10:00 52.15015 -41.05962 38072 ft 481 kts 264°
2026-05-05 10:01 52.14756 -41.16857 38069 ft 482 kts 264°
2026-05-05 10:01 52.14488 -41.27754 38069 ft 482 kts 263°
2026-05-05 10:02 52.14209 -41.38650 38061 ft 482 kts 264°
2026-05-05 10:02 52.13921 -41.49554 38064 ft 482 kts 264°
2026-05-05 10:03 52.13622 -41.60447 38062 ft 482 kts 264°
2026-05-05 10:03 52.13314 -41.71343 38058 ft 482 kts 263°
2026-05-05 10:04 52.12995 -41.82247 38066 ft 483 kts 263°
2026-05-05 10:04 52.12666 -41.93116 38054 ft 485 kts 263°
2026-05-05 10:05 52.12325 -42.04059 38046 ft 484 kts 263°
2026-05-05 10:05 52.11976 -42.14991 38060 ft 484 kts 263°
2026-05-05 10:06 52.11615 -42.25928 38044 ft 484 kts 263°
2026-05-05 10:06 52.11245 -42.36847 38050 ft 484 kts 263°
2026-05-05 10:07 52.10864 -42.47768 38047 ft 483 kts 263°
2026-05-05 10:07 52.10474 -42.58694 38066 ft 484 kts 263°
2026-05-05 10:08 52.10072 -42.69625 38038 ft 484 kts 263°
2026-05-05 10:08 52.09661 -42.80553 38037 ft 484 kts 263°
2026-05-05 10:09 52.09240 -42.91476 38031 ft 484 kts 263°
2026-05-05 10:09 52.08809 -43.02399 38029 ft 484 kts 263°
2026-05-05 10:10 52.08368 -43.13306 38028 ft 484 kts 262°
2026-05-05 10:10 52.07916 -43.24233 38027 ft 484 kts 262°
2026-05-05 10:11 52.07456 -43.35119 38045 ft 483 kts 262°
2026-05-05 10:11 52.06985 -43.46017 38019 ft 484 kts 262°
2026-05-05 10:12 52.06506 -43.56856 38002 ft 484 kts 262°
2026-05-05 10:12 52.06014 -43.67764 38005 ft 484 kts 262°
2026-05-05 10:13 52.05513 -43.78676 38000 ft 484 kts 262°
2026-05-05 10:13 52.05001 -43.89581 37999 ft 484 kts 262°
2026-05-05 10:14 52.04479 -44.00476 37997 ft 484 kts 262°
2026-05-05 10:14 52.03947 -44.11376 37997 ft 484 kts 262°
2026-05-05 10:15 52.03404 -44.22291 37980 ft 486 kts 262°
2026-05-05 10:15 52.02849 -44.33235 37979 ft 487 kts 262°
2026-05-05 10:16 52.02284 -44.44183 37983 ft 487 kts 261°
2026-05-05 10:16 52.01710 -44.55120 37969 ft 485 kts 261°
2026-05-05 10:17 52.01127 -44.66021 37971 ft 485 kts 261°
2026-05-05 10:17 52.00533 -44.76926 37954 ft 485 kts 261°
2026-05-05 10:18 51.99930 -44.87818 37957 ft 485 kts 261°
2026-05-05 10:18 51.99316 -44.98719 37953 ft 486 kts 261°
2026-05-05 10:19 51.98690 -45.09640 37949 ft 486 kts 261°
2026-05-05 10:19 51.98056 -45.20546 37936 ft 485 kts 261°
2026-05-05 10:20 51.97412 -45.31439 37939 ft 485 kts 261°
2026-05-05 10:20 51.96758 -45.42324 37925 ft 485 kts 261°
2026-05-05 10:21 51.96095 -45.53203 37919 ft 485 kts 261°
2026-05-05 10:21 51.95421 -45.64077 37919 ft 485 kts 261°
2026-05-05 10:22 51.94737 -45.74954 37910 ft 485 kts 261°
2026-05-05 10:22 51.94042 -45.85831 37906 ft 485 kts 260°
2026-05-05 10:23 51.93339 -45.96694 37901 ft 485 kts 260°
2026-05-05 10:23 51.92625 -46.07562 37886 ft 485 kts 260°
2026-05-05 10:24 51.92024 -46.16594 37889 ft 485 kts 260°
2026-05-05 10:24 51.91167 -46.29287 37884 ft 485 kts 260°
2026-05-05 10:25 51.90550 -46.38299 37872 ft 484 kts 260°
2026-05-05 10:25 51.89678 -46.50874 37870 ft 483 kts 260°
2026-05-05 10:26 51.89041 -46.59920 37870 ft 483 kts 260°
2026-05-05 10:26 51.88271 -46.70730 37855 ft 483 kts 260°
2026-05-05 10:27 51.87493 -46.81519 37853 ft 483 kts 259°
2026-05-05 10:27 51.86704 -46.92310 37868 ft 483 kts 259°
2026-05-05 10:28 51.85908 -47.03080 37847 ft 481 kts 259°
2026-05-05 10:28 51.85102 -47.13831 37846 ft 481 kts 259°
2026-05-05 10:29 51.84287 -47.24562 37860 ft 481 kts 259°
2026-05-05 10:29 51.83461 -47.35316 37830 ft 483 kts 259°
2026-05-05 10:30 51.82623 -47.46086 37829 ft 483 kts 259°
2026-05-05 10:30 51.81781 -47.56783 37831 ft 482 kts 259°
2026-05-05 10:31 51.80921 -47.67592 37812 ft 482 kts 259°
2026-05-05 10:31 51.80062 -47.78248 37812 ft 482 kts 259°
2026-05-05 10:32 51.79187 -47.88978 37803 ft 482 kts 259°
2026-05-05 10:32 51.78302 -47.99702 37799 ft 482 kts 259°
2026-05-05 10:33 51.77408 -48.10425 37803 ft 482 kts 259°
2026-05-05 10:33 51.76502 -48.21164 37777 ft 482 kts 258°
2026-05-05 10:34 51.75589 -48.31873 37772 ft 482 kts 258°
2026-05-05 10:34 51.74666 -48.42571 37774 ft 481 kts 258°
2026-05-05 10:35 51.73733 -48.53274 37769 ft 481 kts 258°
2026-05-05 10:35 51.72791 -48.63965 38000 ft 480 kts 258°
2026-05-05 10:36 51.72320 -48.69277 38309 ft 477 kts 258°
2026-05-05 10:36 51.71849 -48.74563 38497 ft 477 kts 258°
2026-05-05 10:36 51.71373 -48.79860 38625 ft 477 kts 258°
2026-05-05 10:36 51.70895 -48.85156 38729 ft 478 kts 258°
2026-05-05 10:37 51.69927 -48.95781 38848 ft 480 kts 258°
2026-05-05 10:37 51.69439 -49.01106 39001 ft 479 kts 258°
2026-05-05 10:37 51.68950 -49.06414 39106 ft 479 kts 258°
2026-05-05 10:38 51.67964 -49.17045 39314 ft 478 kts 258°
2026-05-05 10:38 51.66968 -49.27660 39458 ft 480 kts 258°
2026-05-05 10:39 51.66468 -49.32967 39596 ft 479 kts 257°
2026-05-05 10:39 51.65964 -49.38264 39707 ft 479 kts 258°
2026-05-05 10:39 51.64945 -49.48906 39716 ft 482 kts 257°
2026-05-05 10:40 51.63913 -49.59581 39727 ft 484 kts 258°
2026-05-05 10:40 51.62869 -49.70280 39723 ft 484 kts 258°
2026-05-05 10:41 51.61813 -49.80993 39706 ft 485 kts 257°
2026-05-05 10:41 51.60746 -49.91712 39701 ft 485 kts 257°
2026-05-05 10:42 51.59136 -50.07696 39688 ft 485 kts 257°
2026-05-05 10:43 51.58049 -50.18379 39689 ft 485 kts 257°
2026-05-05 10:43 51.56953 -50.29076 39687 ft 484 kts 257°
2026-05-05 10:44 51.55843 -50.39763 39678 ft 486 kts 257°
2026-05-05 10:44 51.54720 -50.50474 39677 ft 486 kts 257°
2026-05-05 10:45 51.53590 -50.61172 39674 ft 485 kts 258°
2026-05-05 10:45 51.52455 -50.71834 39659 ft 484 kts 257°
2026-05-05 10:46 51.51309 -50.82486 39657 ft 484 kts 257°
2026-05-05 10:46 51.50154 -50.93126 39646 ft 484 kts 257°
2026-05-05 10:47 51.48988 -51.03759 39644 ft 483 kts 257°
2026-05-05 10:47 51.47811 -51.14392 39647 ft 484 kts 257°
2026-05-05 10:48 51.46624 -51.25024 39631 ft 484 kts 257°
2026-05-05 10:48 51.45432 -51.35649 39631 ft 483 kts 256°
2026-05-05 10:49 51.44232 -51.46252 39630 ft 484 kts 256°
2026-05-05 10:49 51.43018 -51.56850 39616 ft 484 kts 256°
2026-05-05 10:50 51.41797 -51.67450 39616 ft 484 kts 257°
2026-05-05 10:50 51.40567 -51.78048 39617 ft 483 kts 257°
2026-05-05 10:51 51.39328 -51.88623 39607 ft 483 kts 256°
2026-05-05 10:51 51.38078 -51.99185 39604 ft 484 kts 257°
2026-05-05 10:52 51.36819 -52.09756 39606 ft 483 kts 256°
2026-05-05 10:52 51.35551 -52.20322 39590 ft 483 kts 256°
2026-05-05 10:53 51.34271 -52.30863 39591 ft 484 kts 256°
2026-05-05 10:53 51.32990 -52.41342 39588 ft 482 kts 256°
2026-05-05 10:54 51.31689 -52.51926 39574 ft 481 kts 256°
2026-05-05 10:54 51.30396 -52.62354 39584 ft 482 kts 256°
2026-05-05 10:55 51.29073 -52.72939 39564 ft 484 kts 256°
2026-05-05 10:55 51.27747 -52.83468 39561 ft 484 kts 256°
2026-05-05 10:56 51.26411 -52.93997 39563 ft 483 kts 256°
2026-05-05 10:56 51.25078 -53.04433 39554 ft 483 kts 256°
2026-05-05 10:57 51.23729 -53.14915 39556 ft 482 kts 256°
2026-05-05 10:57 51.22368 -53.25393 39559 ft 482 kts 256°
2026-05-05 10:58 51.21001 -53.35861 39550 ft 482 kts 256°
2026-05-05 10:58 51.19625 -53.46320 39535 ft 483 kts 256°
2026-05-05 10:59 51.18233 -53.56787 39537 ft 482 kts 256°
2026-05-05 10:59 51.16869 -53.66994 39537 ft 481 kts 256°
2026-05-05 11:00 51.15463 -53.77432 39546 ft 482 kts 255°
2026-05-05 11:00 51.14051 -53.87843 39545 ft 481 kts 256°
2026-05-05 11:01 51.12630 -53.98241 39521 ft 480 kts 256°
2026-05-05 11:01 51.11199 -54.08651 39523 ft 482 kts 255°
2026-05-05 11:02 51.09759 -54.19050 39540 ft 481 kts 256°
2026-05-05 11:02 51.08315 -54.29410 39533 ft 480 kts 256°
2026-05-05 11:03 51.06862 -54.39755 39519 ft 479 kts 256°
2026-05-05 11:03 51.05399 -54.50096 39519 ft 479 kts 256°
2026-05-05 11:04 51.03927 -54.60434 39540 ft 480 kts 255°
2026-05-05 11:04 51.02450 -54.70746 39531 ft 479 kts 256°
2026-05-05 11:05 51.00967 -54.81017 39523 ft 477 kts 256°
2026-05-05 11:05 50.99473 -54.91291 39522 ft 477 kts 256°
2026-05-05 11:06 50.97970 -55.01568 39524 ft 478 kts 255°
2026-05-05 11:06 50.96460 -55.11822 39515 ft 478 kts 256°
2026-05-05 11:07 50.94941 -55.22071 39514 ft 477 kts 256°
2026-05-05 11:07 50.93420 -55.32273 39509 ft 478 kts 255°
2026-05-05 11:08 50.91884 -55.42512 39495 ft 478 kts 255°
2026-05-05 11:08 50.90335 -55.52757 39504 ft 478 kts 255°
2026-05-05 11:09 50.88773 -55.63015 39495 ft 480 kts 255°
2026-05-05 11:09 50.87200 -55.73292 39478 ft 481 kts 255°
2026-05-05 11:10 50.85615 -55.83578 39481 ft 481 kts 255°
2026-05-05 11:10 50.84021 -55.93860 39478 ft 481 kts 255°
2026-05-05 11:11 50.82419 -56.04125 39456 ft 481 kts 255°
2026-05-05 11:11 50.80809 -56.14379 39456 ft 481 kts 255°
2026-05-05 11:12 50.79190 -56.24629 39452 ft 481 kts 255°
2026-05-05 11:12 50.77559 -56.34887 39447 ft 481 kts 255°
2026-05-05 11:13 50.76201 -56.43383 39448 ft 481 kts 254°
2026-05-05 11:13 50.74555 -56.53615 39442 ft 480 kts 255°
2026-05-05 11:14 50.72901 -56.63847 39445 ft 480 kts 255°
2026-05-05 11:14 50.71239 -56.74059 39453 ft 482 kts 254°
2026-05-05 11:15 50.69566 -56.84270 39449 ft 481 kts 254°
2026-05-05 11:15 50.67885 -56.94467 39458 ft 480 kts 254°
2026-05-05 11:16 50.66201 -57.04624 39459 ft 476 kts 255°
2026-05-05 11:16 50.64525 -57.14682 39467 ft 473 kts 255°
2026-05-05 11:17 50.62846 -57.24699 39471 ft 474 kts 255°
2026-05-05 11:17 50.61154 -57.34724 39490 ft 474 kts 255°
2026-05-05 11:18 50.59452 -57.44752 39499 ft 474 kts 255°
2026-05-05 11:18 50.57743 -57.54768 39518 ft 473 kts 254°
2026-05-05 11:19 50.56038 -57.64708 39526 ft 470 kts 254°
2026-05-05 11:19 50.54325 -57.74633 39555 ft 472 kts 254°
2026-05-05 11:20 50.52593 -57.84609 39557 ft 474 kts 254°
2026-05-05 11:20 50.50855 -57.94576 39556 ft 472 kts 254°
2026-05-05 11:21 50.49107 -58.04528 39571 ft 472 kts 254°
2026-05-05 11:21 50.47353 -58.14456 39575 ft 473 kts 254°
2026-05-05 11:22 50.45587 -58.24403 39579 ft 473 kts 253°
2026-05-05 11:22 50.43816 -58.34329 39579 ft 472 kts 253°
2026-05-05 11:23 50.42037 -58.44244 39590 ft 472 kts 253°
2026-05-05 11:23 50.40257 -58.54110 39574 ft 474 kts 253°
2026-05-05 11:24 50.38454 -58.64048 39589 ft 474 kts 253°
2026-05-05 11:24 50.36643 -58.73975 39588 ft 474 kts 253°
2026-05-05 11:25 50.34826 -58.83886 39566 ft 474 kts 253°
2026-05-05 11:25 50.32997 -58.93796 39576 ft 474 kts 253°
2026-05-05 11:26 50.31161 -59.03701 39568 ft 473 kts 253°
2026-05-05 11:26 50.29320 -59.13578 39567 ft 475 kts 253°
2026-05-05 11:27 50.27459 -59.23507 39561 ft 475 kts 253°
2026-05-05 11:27 50.25598 -59.33386 39582 ft 473 kts 253°
2026-05-05 11:28 50.23732 -59.43244 39566 ft 473 kts 253°
2026-05-05 11:28 50.21856 -59.53094 39590 ft 473 kts 253°
2026-05-05 11:29 50.19973 -59.62935 39580 ft 473 kts 253°
2026-05-05 11:29 50.18079 -59.72780 39596 ft 474 kts 253°
2026-05-05 11:30 50.16182 -59.82590 39609 ft 473 kts 253°
2026-05-05 11:30 50.14275 -59.92399 39594 ft 473 kts 253°
2026-05-05 11:31 50.12374 -60.02133 39618 ft 473 kts 253°
2026-05-05 11:31 50.10438 -60.11996 39615 ft 473 kts 253°
2026-05-05 11:32 50.08505 -60.21789 39630 ft 473 kts 253°
2026-05-05 11:32 50.06578 -60.31504 39626 ft 473 kts 253°
2026-05-05 11:33 50.04625 -60.41304 39648 ft 471 kts 253°
2026-05-05 11:33 50.02686 -60.50979 39643 ft 471 kts 253°
2026-05-05 11:34 50.00725 -60.60722 39655 ft 472 kts 253°
2026-05-05 11:34 49.98756 -60.70452 39655 ft 472 kts 253°
2026-05-05 11:35 49.96776 -60.80188 39656 ft 473 kts 253°
2026-05-05 11:35 49.94790 -60.89908 39657 ft 472 kts 253°
2026-05-05 11:36 49.92801 -60.99594 39666 ft 472 kts 253°
2026-05-05 11:36 49.90799 -61.09298 39656 ft 472 kts 252°
2026-05-05 11:37 49.88790 -61.18987 39676 ft 472 kts 252°
2026-05-05 11:37 49.86773 -61.28664 39663 ft 472 kts 252°
2026-05-05 11:38 49.84748 -61.38336 39677 ft 472 kts 252°
2026-05-05 11:38 49.82717 -61.47992 39672 ft 472 kts 252°
2026-05-05 11:39 49.80677 -61.57641 39683 ft 472 kts 252°
2026-05-05 11:39 49.78629 -61.67282 39681 ft 472 kts 252°
2026-05-05 11:40 49.76572 -61.76922 39702 ft 471 kts 252°
2026-05-05 11:40 49.74506 -61.86556 39676 ft 472 kts 252°
2026-05-05 11:41 49.72429 -61.96198 39688 ft 473 kts 252°
2026-05-05 11:41 49.70343 -62.05837 39694 ft 473 kts 252°
2026-05-05 11:42 49.68253 -62.15448 39693 ft 473 kts 252°
2026-05-05 11:42 49.66149 -62.25076 39697 ft 473 kts 252°
2026-05-05 11:43 49.64040 -62.34684 39694 ft 473 kts 252°
2026-05-05 11:43 49.61922 -62.44293 39692 ft 472 kts 252°
2026-05-05 11:44 49.59807 -62.53839 39713 ft 472 kts 252°
2026-05-05 11:44 49.57675 -62.63421 39710 ft 473 kts 252°
2026-05-05 11:45 49.55532 -62.73007 39717 ft 473 kts 251°
2026-05-05 11:45 49.53381 -62.82582 39716 ft 473 kts 251°
2026-05-05 11:46 49.51239 -62.92076 39711 ft 473 kts 251°
2026-05-05 11:46 49.49076 -63.01623 39730 ft 472 kts 251°
2026-05-05 11:47 49.46910 -63.11136 39729 ft 471 kts 251°
2026-05-05 11:47 49.44734 -63.20653 39743 ft 473 kts 251°
2026-05-05 11:48 49.41446 -63.34949 39743 ft 473 kts 251°
2026-05-05 11:48 49.39246 -63.44465 39738 ft 473 kts 251°
2026-05-05 11:49 49.37039 -63.53968 39742 ft 472 kts 251°
2026-05-05 11:49 49.34826 -63.63452 39743 ft 472 kts 251°
2026-05-05 11:50 49.32609 -63.72913 39742 ft 472 kts 251°
2026-05-05 11:50 49.30382 -63.82373 39740 ft 471 kts 251°
2026-05-05 11:51 49.28155 -63.91793 39740 ft 470 kts 251°
2026-05-05 11:51 49.25927 -64.01182 39740 ft 469 kts 251°
2026-05-05 11:52 49.23695 -64.10544 39738 ft 468 kts 251°
2026-05-05 11:52 49.21458 -64.19888 39726 ft 468 kts 251°
2026-05-05 11:53 49.19210 -64.29236 39728 ft 468 kts 251°
2026-05-05 11:53 49.16957 -64.38568 39726 ft 468 kts 251°
2026-05-05 11:54 49.14699 -64.47878 39706 ft 466 kts 251°
2026-05-05 11:54 49.12453 -64.57097 39723 ft 462 kts 251°
2026-05-05 11:55 49.10206 -64.66285 39724 ft 462 kts 251°
2026-05-05 11:55 49.07955 -64.75453 39726 ft 462 kts 251°
2026-05-05 11:56 49.05695 -64.84618 39727 ft 462 kts 251°
2026-05-05 11:56 49.03431 -64.93763 39725 ft 462 kts 251°
2026-05-05 11:57 49.01176 -65.02832 39731 ft 460 kts 251°
2026-05-05 11:57 48.98902 -65.11945 39733 ft 460 kts 250°
2026-05-05 11:58 48.96620 -65.21050 39739 ft 460 kts 250°
2026-05-05 11:58 48.94331 -65.30143 39738 ft 460 kts 250°
2026-05-05 11:59 48.92039 -65.39214 39747 ft 460 kts 250°
2026-05-05 11:59 48.90123 -65.46770 39728 ft 460 kts 250°
2026-05-05 12:00 48.87430 -65.57346 39754 ft 459 kts 250°
2026-05-05 12:00 48.85511 -65.64855 39751 ft 458 kts 250°
2026-05-05 12:01 48.83195 -65.73882 39741 ft 460 kts 250°
2026-05-05 12:01 48.80868 -65.82916 39750 ft 461 kts 250°
2026-05-05 12:02 48.78526 -65.91970 39750 ft 461 kts 250°
2026-05-05 12:02 48.76181 -66.01000 39751 ft 459 kts 250°
2026-05-05 12:03 48.73837 -66.09992 39751 ft 458 kts 250°
2026-05-05 12:03 48.71489 -66.18964 39745 ft 458 kts 250°
2026-05-05 12:04 48.69135 -66.27928 39745 ft 458 kts 250°
2026-05-05 12:04 48.66772 -66.36892 39756 ft 459 kts 249°
2026-05-05 12:05 48.64398 -66.45858 39745 ft 459 kts 249°
2026-05-05 12:05 48.62016 -66.54820 39749 ft 459 kts 249°
2026-05-05 12:06 48.59628 -66.63772 39746 ft 459 kts 249°
2026-05-05 12:06 48.57232 -66.72717 39745 ft 459 kts 249°
2026-05-05 12:07 48.54827 -66.81661 39743 ft 459 kts 249°
2026-05-05 12:07 48.52419 -66.90583 39743 ft 459 kts 249°
2026-05-05 12:08 48.50000 -66.99515 39737 ft 461 kts 249°
2026-05-05 12:08 48.47567 -67.08462 39737 ft 461 kts 249°
2026-05-05 12:09 48.45128 -67.17397 39728 ft 461 kts 249°
2026-05-05 12:09 48.42681 -67.26324 39730 ft 461 kts 249°
2026-05-05 12:10 48.40227 -67.35248 39730 ft 461 kts 249°
2026-05-05 12:10 48.37768 -67.44154 39711 ft 461 kts 249°
2026-05-05 12:11 48.35300 -67.53060 39716 ft 461 kts 248°
2026-05-05 12:11 48.32845 -67.61885 39718 ft 461 kts 248°
2026-05-05 12:12 48.30364 -67.70769 39708 ft 461 kts 248°
2026-05-05 12:12 48.27874 -67.79655 39708 ft 461 kts 248°
2026-05-05 12:13 48.25381 -67.88518 39696 ft 461 kts 248°
2026-05-05 12:13 48.22880 -67.97378 39716 ft 461 kts 248°
2026-05-05 12:14 48.20370 -68.06234 39698 ft 461 kts 248°
2026-05-05 12:14 48.17857 -68.15071 39697 ft 461 kts 248°
2026-05-05 12:15 48.15336 -68.23902 39698 ft 461 kts 248°
2026-05-05 12:15 48.12809 -68.32720 39704 ft 461 kts 248°
2026-05-05 12:16 48.10277 -68.41525 39695 ft 459 kts 248°
2026-05-05 12:16 48.07751 -68.50274 39700 ft 458 kts 248°
2026-05-05 12:17 48.05222 -68.59007 39705 ft 457 kts 248°
2026-05-05 12:17 48.02689 -68.67723 39696 ft 457 kts 248°
2026-05-05 12:18 48.00150 -68.76427 39694 ft 456 kts 248°
2026-05-05 12:18 47.97616 -68.85077 39683 ft 454 kts 248°
2026-05-05 12:19 47.95085 -68.93692 39684 ft 453 kts 248°
2026-05-05 12:19 47.92550 -69.02290 39683 ft 453 kts 248°
2026-05-05 12:20 47.90008 -69.10885 39666 ft 453 kts 248°
2026-05-05 12:20 47.87460 -69.19465 39668 ft 453 kts 248°
2026-05-05 12:21 47.84906 -69.28037 39674 ft 453 kts 247°
2026-05-05 12:21 47.82346 -69.36602 39665 ft 452 kts 247°
2026-05-05 12:22 47.79783 -69.45143 39657 ft 452 kts 247°
2026-05-05 12:22 47.77234 -69.53609 39651 ft 452 kts 247°
2026-05-05 12:23 47.74048 -69.61652 39656 ft 454 kts 235°
2026-05-05 12:23 47.70128 -69.69026 39653 ft 455 kts 233°
2026-05-05 12:24 47.66100 -69.76252 39653 ft 453 kts 232°
2026-05-05 12:24 47.62078 -69.83440 39654 ft 452 kts 233°
2026-05-05 12:25 47.58073 -69.90626 39653 ft 452 kts 233°
2026-05-05 12:25 47.54070 -69.97810 39657 ft 452 kts 233°
2026-05-05 12:26 47.50073 -70.04968 39650 ft 450 kts 233°
2026-05-05 12:26 47.46082 -70.12095 39653 ft 450 kts 233°
2026-05-05 12:27 47.42089 -70.19208 39658 ft 450 kts 232°
2026-05-05 12:27 47.38077 -70.26297 39658 ft 450 kts 232°
2026-05-05 12:28 47.34058 -70.33366 39657 ft 450 kts 232°
2026-05-05 12:28 47.30038 -70.40425 39658 ft 450 kts 232°
2026-05-05 12:29 47.26014 -70.47479 39664 ft 450 kts 232°
2026-05-05 12:29 47.21986 -70.54523 39663 ft 450 kts 232°
2026-05-05 12:30 47.17953 -70.61556 39663 ft 450 kts 232°
2026-05-05 12:30 47.13919 -70.68573 39665 ft 449 kts 232°
2026-05-05 12:31 47.09879 -70.75584 39675 ft 450 kts 232°
2026-05-05 12:31 47.05827 -70.82596 39672 ft 451 kts 232°
2026-05-05 12:32 47.01766 -70.89592 39667 ft 451 kts 232°
2026-05-05 12:32 46.97718 -70.96523 39674 ft 450 kts 232°
2026-05-05 12:33 46.93643 -71.03484 39680 ft 450 kts 232°
2026-05-05 12:33 46.89564 -71.10437 39676 ft 450 kts 232°
2026-05-05 12:34 46.85484 -71.17378 39674 ft 450 kts 231°
2026-05-05 12:34 46.81406 -71.24298 39673 ft 449 kts 231°
2026-05-05 12:35 46.77066 -71.30870 39672 ft 451 kts 226°
2026-05-05 12:35 46.72425 -71.37037 39671 ft 451 kts 225°
2026-05-05 12:36 46.67740 -71.43120 39666 ft 451 kts 224°
2026-05-05 12:36 46.63062 -71.49182 39682 ft 449 kts 225°
2026-05-05 12:37 46.58405 -71.55224 39674 ft 448 kts 225°
2026-05-05 12:37 46.53756 -71.61249 39672 ft 448 kts 225°
2026-05-05 12:38 46.49103 -71.67267 39659 ft 447 kts 225°
2026-05-05 12:38 46.44456 -71.73261 39664 ft 447 kts 225°
2026-05-05 12:39 46.39857 -71.79300 39666 ft 445 kts 228°
2026-05-05 12:39 46.35841 -71.86096 39664 ft 443 kts 233°
2026-05-05 12:40 46.32012 -71.93075 39669 ft 442 kts 234°
2026-05-05 12:40 46.28209 -72.00069 39666 ft 442 kts 234°
2026-05-05 12:41 46.24419 -72.07000 39661 ft 442 kts 234°
2026-05-05 12:41 46.20566 -72.14003 39664 ft 442 kts 233°
2026-05-05 12:42 46.16736 -72.20942 39667 ft 442 kts 233°
2026-05-05 12:42 46.12909 -72.27857 39656 ft 441 kts 233°
2026-05-05 12:43 46.09109 -72.34711 39654 ft 440 kts 233°
2026-05-05 12:43 46.05279 -72.41597 39652 ft 440 kts 233°
2026-05-05 12:44 46.01446 -72.48472 39640 ft 440 kts 233°
2026-05-05 12:44 45.98050 -72.55737 39648 ft 437 kts 245°
2026-05-05 12:45 45.96006 -72.63917 39653 ft 436 kts 255°
2026-05-05 12:45 45.94488 -72.72357 39644 ft 436 kts 256°
2026-05-05 12:46 45.93035 -72.80812 39645 ft 436 kts 256°
2026-05-05 12:46 45.90882 -72.88908 39642 ft 435 kts 242°
2026-05-05 12:47 45.87422 -72.96051 39636 ft 437 kts 233°
2026-05-05 12:47 45.84212 -73.01641 39645 ft 437 kts 232°
2026-05-05 12:48 45.80289 -73.08279 39647 ft 436 kts 232°
2026-05-05 12:48 45.76384 -73.14938 39639 ft 436 kts 232°
2026-05-05 12:49 45.73633 -73.19667 39639 ft 436 kts 232°
2026-05-05 12:49 45.70352 -73.26899 39643 ft 432 kts 245°
2026-05-05 12:50 45.68555 -73.35039 39671 ft 431 kts 258°
2026-05-05 12:50 45.67555 -73.43517 39662 ft 433 kts 260°
2026-05-05 12:51 45.66657 -73.52036 39661 ft 434 kts 260°
2026-05-05 12:51 45.65735 -73.60569 39656 ft 434 kts 259°
2026-05-05 12:52 45.65100 -73.66269 39645 ft 434 kts 259°
2026-05-05 12:52 45.64738 -73.69486 39646 ft 434 kts 259°
2026-05-05 12:53 45.63771 -73.77997 39648 ft 434 kts 259°
2026-05-05 12:53 45.62797 -73.86498 39635 ft 434 kts 259°
2026-05-05 12:54 45.61336 -73.99240 39636 ft 434 kts 260°
2026-05-05 12:55 45.60591 -74.07804 39630 ft 434 kts 262°
2026-05-05 12:55 45.59950 -74.16321 39631 ft 434 kts 262°
2026-05-05 12:56 45.59269 -74.24894 39629 ft 435 kts 262°
2026-05-05 12:56 45.58550 -74.33481 39628 ft 436 kts 262°
2026-05-05 12:57 45.57814 -74.42073 39624 ft 436 kts 261°
2026-05-05 12:57 45.57073 -74.50660 39625 ft 436 kts 261°
2026-05-05 12:58 45.56327 -74.59239 39623 ft 436 kts 261°
2026-05-05 12:58 45.55574 -74.67824 39629 ft 435 kts 262°
2026-05-05 12:59 45.54818 -74.76389 39617 ft 435 kts 262°
2026-05-05 12:59 45.54055 -74.84950 39620 ft 435 kts 261°
2026-05-05 13:00 45.52895 -74.97812 39617 ft 436 kts 261°
2026-05-05 13:01 45.51359 -75.14595 39615 ft 434 kts 261°
2026-05-05 13:01 45.50570 -75.23112 39612 ft 433 kts 261°
2026-05-05 13:02 45.49774 -75.31632 39603 ft 433 kts 261°
2026-05-05 13:02 45.48973 -75.40136 39604 ft 433 kts 261°
2026-05-05 13:03 45.48166 -75.48638 39618 ft 433 kts 261°
2026-05-05 13:03 45.47360 -75.57059 39608 ft 431 kts 261°
2026-05-05 13:04 45.46546 -75.65503 39611 ft 430 kts 261°
2026-05-05 13:04 45.45725 -75.73944 39611 ft 431 kts 261°
2026-05-05 13:05 45.44897 -75.82390 39603 ft 431 kts 261°
2026-05-05 13:05 45.44063 -75.90842 39627 ft 431 kts 261°
2026-05-05 13:06 45.43129 -75.99230 39593 ft 428 kts 260°
2026-05-05 13:06 45.42172 -76.07568 39583 ft 427 kts 260°
2026-05-05 13:07 45.41220 -76.15909 39584 ft 426 kts 260°
2026-05-05 13:07 45.39988 -76.24153 39576 ft 426 kts 251°
2026-05-05 13:08 45.37449 -76.31765 39587 ft 427 kts 242°
2026-05-05 13:08 45.34541 -76.39112 39572 ft 423 kts 242°
2026-05-05 13:09 45.31672 -76.46368 39586 ft 419 kts 242°
2026-05-05 13:09 45.28824 -76.53572 39584 ft 419 kts 242°
2026-05-05 13:10 45.25966 -76.60789 39587 ft 419 kts 242°
2026-05-05 13:10 45.23103 -76.67999 39580 ft 419 kts 242°
2026-05-05 13:11 45.20240 -76.75193 39586 ft 419 kts 242°
2026-05-05 13:11 45.17367 -76.82391 39588 ft 419 kts 242°
2026-05-05 13:12 45.14522 -76.89504 39590 ft 416 kts 242°
2026-05-05 13:12 45.11668 -76.96621 39587 ft 415 kts 242°
2026-05-05 13:13 45.08810 -77.03728 39591 ft 415 kts 242°
2026-05-05 13:13 45.05948 -77.10826 39427 ft 414 kts 242°
2026-05-05 13:14 45.04526 -77.14347 39193 ft 410 kts 242°
2026-05-05 13:14 45.03114 -77.17838 38963 ft 408 kts 242°
2026-05-05 13:14 45.01706 -77.21315 38736 ft 407 kts 242°
2026-05-05 13:14 45.00304 -77.24773 38508 ft 405 kts 242°
2026-05-05 13:15 44.98908 -77.28211 38276 ft 403 kts 242°
2026-05-05 13:15 44.97516 -77.31639 38024 ft 402 kts 241°
2026-05-05 13:15 44.96125 -77.35059 37748 ft 402 kts 241°
2026-05-05 13:15 44.94729 -77.38483 37459 ft 402 kts 241°
2026-05-05 13:16 44.93334 -77.41904 37165 ft 403 kts 240°
2026-05-05 13:16 44.91945 -77.45306 36724 ft 397 kts 240°
2026-05-05 13:16 44.90570 -77.48668 36168 ft 394 kts 240°
2026-05-05 13:16 44.89202 -77.52008 35520 ft 392 kts 240°
2026-05-05 13:17 44.87841 -77.55330 35023 ft 389 kts 240°
2026-05-05 13:17 44.86498 -77.58603 34565 ft 384 kts 240°
2026-05-05 13:17 44.85168 -77.61841 34110 ft 380 kts 240°
2026-05-05 13:17 44.83851 -77.65044 33653 ft 376 kts 240°
2026-05-05 13:18 44.82546 -77.68213 33148 ft 372 kts 240°
2026-05-05 13:18 44.81256 -77.71342 32687 ft 367 kts 240°
2026-05-05 13:18 44.79983 -77.74427 32247 ft 362 kts 240°
2026-05-05 13:18 44.78727 -77.77469 31818 ft 357 kts 240°
2026-05-05 13:19 44.77483 -77.80472 31369 ft 353 kts 241°
2026-05-05 13:19 44.76255 -77.83439 30925 ft 349 kts 241°
2026-05-05 13:19 44.75048 -77.86366 30535 ft 343 kts 241°
2026-05-05 13:19 44.73854 -77.89269 30108 ft 342 kts 241°
2026-05-05 13:20 44.72661 -77.92162 29704 ft 342 kts 241°
2026-05-05 13:20 44.71471 -77.95046 29251 ft 340 kts 241°
2026-05-05 13:20 44.70285 -77.97916 28809 ft 338 kts 241°
2026-05-05 13:20 44.69108 -78.00762 28393 ft 336 kts 241°
2026-05-05 13:21 44.67951 -78.03554 27977 ft 334 kts 241°
2026-05-05 13:21 44.66772 -78.06400 27557 ft 331 kts 241°
2026-05-05 13:21 44.65631 -78.09150 27156 ft 329 kts 241°
2026-05-05 13:21 44.64482 -78.11918 26741 ft 327 kts 241°
2026-05-05 13:22 44.63337 -78.14673 26332 ft 325 kts 241°
2026-05-05 13:22 44.62199 -78.17409 25919 ft 324 kts 241°
2026-05-05 13:22 44.61066 -78.20129 25513 ft 322 kts 241°
2026-05-05 13:22 44.59939 -78.22831 25101 ft 320 kts 241°
2026-05-05 13:23 44.58819 -78.25516 24672 ft 318 kts 241°
2026-05-05 13:23 44.57705 -78.28184 24271 ft 318 kts 241°
2026-05-05 13:23 44.56588 -78.30866 23866 ft 318 kts 241°
2026-05-05 13:23 44.55471 -78.33535 23453 ft 317 kts 241°
2026-05-05 13:24 44.54355 -78.36190 23005 ft 315 kts 241°
2026-05-05 13:24 44.53246 -78.38828 22555 ft 313 kts 241°
2026-05-05 13:24 44.52142 -78.41452 22136 ft 311 kts 241°
2026-05-05 13:24 44.51047 -78.44056 21716 ft 309 kts 241°
2026-05-05 13:25 44.49958 -78.46641 21300 ft 307 kts 241°
2026-05-05 13:25 44.48875 -78.49212 20884 ft 306 kts 241°
2026-05-05 13:25 44.47799 -78.51764 20463 ft 304 kts 241°
2026-05-05 13:25 44.46728 -78.54302 20056 ft 302 kts 241°
2026-05-05 13:26 44.45662 -78.56825 19641 ft 300 kts 241°
2026-05-05 13:26 44.44601 -78.59334 19229 ft 299 kts 241°
2026-05-05 13:26 44.43546 -78.61828 18810 ft 297 kts 241°
2026-05-05 13:26 44.42496 -78.64307 18380 ft 296 kts 241°
2026-05-05 13:27 44.41446 -78.66785 17982 ft 296 kts 241°
2026-05-05 13:27 44.40397 -78.69256 17544 ft 295 kts 241°
2026-05-05 13:27 44.39355 -78.71712 17120 ft 292 kts 241°
2026-05-05 13:27 44.38320 -78.74147 16713 ft 290 kts 240°
2026-05-05 13:28 44.37294 -78.76557 16307 ft 288 kts 240°
2026-05-05 13:28 44.36267 -78.78971 16022 ft 294 kts 240°
2026-05-05 13:28 44.35229 -78.81408 15771 ft 288 kts 240°
2026-05-05 13:28 44.34211 -78.83795 15401 ft 285 kts 240°
2026-05-05 13:29 44.33215 -78.86128 15019 ft 282 kts 240°
2026-05-05 13:29 44.32214 -78.88470 14618 ft 280 kts 241°
2026-05-05 13:29 44.31222 -78.90791 14218 ft 277 kts 240°
2026-05-05 13:29 44.30237 -78.93093 13823 ft 275 kts 240°
2026-05-05 13:30 44.29261 -78.95374 13430 ft 273 kts 241°
2026-05-05 13:30 44.28277 -78.97670 13014 ft 271 kts 240°
2026-05-05 13:30 44.27313 -78.99919 12615 ft 270 kts 240°
2026-05-05 13:30 44.26365 -79.02128 12237 ft 269 kts 240°
2026-05-05 13:31 44.25388 -79.04387 11838 ft 267 kts 239°
2026-05-05 13:31 44.24289 -79.06433 11492 ft 267 kts 232°
2026-05-05 13:31 44.23035 -79.08369 11102 ft 264 kts 230°
2026-05-05 13:31 44.21809 -79.10208 10695 ft 262 kts 230°
2026-05-05 13:32 44.20594 -79.12033 10531 ft 250 kts 230°
2026-05-05 13:32 44.19443 -79.13762 10430 ft 237 kts 230°
2026-05-05 13:32 44.18349 -79.15409 10311 ft 226 kts 231°
2026-05-05 13:32 44.17303 -79.16985 10190 ft 219 kts 231°
2026-05-05 13:33 44.16260 -79.18563 9944 ft 222 kts 231°
2026-05-05 13:33 44.15189 -79.20187 9766 ft 236 kts 231°
2026-05-05 13:33 44.14065 -79.21886 9601 ft 238 kts 230°
2026-05-05 13:33 44.12956 -79.23552 9332 ft 229 kts 230°
2026-05-05 13:34 44.11898 -79.25139 9162 ft 218 kts 231°
2026-05-05 13:34 44.10894 -79.26645 8981 ft 207 kts 231°
2026-05-05 13:34 44.09917 -79.28116 8809 ft 208 kts 230°
2026-05-05 13:34 44.08935 -79.29596 8495 ft 208 kts 230°
2026-05-05 13:35 44.07934 -79.31048 8206 ft 209 kts 226°
2026-05-05 13:35 44.06700 -79.32147 7929 ft 216 kts 207°
2026-05-05 13:35 44.05262 -79.32555 7703 ft 223 kts 195°
2026-05-05 13:35 44.04044 -79.32891 7510 ft 221 kts 200°
2026-05-05 13:36 44.03051 -79.33201 7349 ft 220 kts 200°
2026-05-05 13:36 44.01054 -79.33824 7024 ft 220 kts 200°
2026-05-05 13:36 43.99563 -79.34284 6792 ft 220 kts 199°
2026-05-05 13:36 43.98067 -79.34742 6556 ft 220 kts 199°
2026-05-05 13:37 43.96576 -79.35196 6322 ft 219 kts 199°
2026-05-05 13:37 43.95091 -79.35646 6132 ft 217 kts 199°
2026-05-05 13:37 43.93609 -79.36089 6120 ft 219 kts 199°
2026-05-05 13:37 43.92118 -79.36534 6105 ft 219 kts 199°
2026-05-05 13:38 43.90649 -79.36976 6098 ft 219 kts 199°
2026-05-05 13:38 43.89646 -79.37281 6033 ft 218 kts 199°
2026-05-05 13:38 43.88175 -79.37773 5837 ft 216 kts 203°
2026-05-05 13:38 43.86436 -79.38990 5478 ft 210 kts 221°
2026-05-05 13:39 43.85689 -79.39866 5267 ft 208 kts 226°
2026-05-05 13:39 43.84677 -79.41283 4945 ft 206 kts 229°
2026-05-05 13:39 43.83698 -79.42700 4641 ft 202 kts 229°
2026-05-05 13:39 43.82743 -79.44094 4378 ft 197 kts 229°
2026-05-05 13:40 43.81815 -79.45445 4126 ft 190 kts 229°
2026-05-05 13:40 43.80927 -79.46738 3859 ft 182 kts 230°
2026-05-05 13:40 43.80074 -79.47984 3597 ft 174 kts 230°
2026-05-05 13:40 43.79257 -79.49174 3393 ft 167 kts 230°
2026-05-05 13:41 43.78479 -79.50308 3170 ft 164 kts 230°
2026-05-05 13:41 43.77686 -79.51468 2946 ft 168 kts 229°
2026-05-05 13:41 43.76879 -79.52640 2719 ft 169 kts 230°
2026-05-05 13:41 43.76079 -79.53809 2493 ft 163 kts 230°
2026-05-05 13:42 43.75325 -79.54903 2291 ft 153 kts 230°
2026-05-05 13:42 43.74614 -79.55938 2083 ft 143 kts 231°
2026-05-05 13:42 43.73948 -79.56909 1890 ft 135 kts 230°
2026-05-05 13:42 43.73315 -79.57829 1719 ft 132 kts 231°
2026-05-05 13:43 43.72678 -79.58757 1539 ft 135 kts 230°
2026-05-05 13:43 43.72032 -79.59697 1364 ft 133 kts 230°
2026-05-05 13:43 43.71407 -79.60621 1199 ft 132 kts 229°
2026-05-05 13:43 43.70766 -79.61539 1035 ft 133 kts 229°
2026-05-05 13:44 43.70115 -79.62492 813 ft 136 kts 227°
2026-05-05 13:44 43.69483 -79.63407 636 ft 129 kts 230°
2026-05-05 13:44 43.68885 -79.64273 579 ft 114 kts 226°
2026-05-05 13:44 43.68453 -79.64904 579 ft 66 kts 225°
2026-05-05 13:45 43.68256 -79.65075 579 ft 25 kts 198°
2026-05-05 13:45 43.68125 -79.65096 578 ft 16 kts 149°
2026-05-05 13:45 43.68122 -79.64977 580 ft 15 kts 51°
2026-05-05 13:45 43.68198 -79.64866 579 ft 17 kts 46°
2026-05-05 13:46 43.68287 -79.64736 582 ft 20 kts 46°
2026-05-05 13:46 43.68396 -79.64577 580 ft 25 kts 46°
2026-05-05 13:46 43.68523 -79.64392 578 ft 28 kts 45°
2026-05-05 13:46 43.68650 -79.64210 579 ft 20 kts 46°
2026-05-05 13:47 43.68747 -79.64071 580 ft 20 kts 46°
2026-05-05 13:47 43.68842 -79.63933 578 ft 20 kts 46°
2026-05-05 13:47 43.68947 -79.63781 580 ft 23 kts 46°
2026-05-05 13:47 43.69029 -79.63638 581 ft 13 kts 89°
2026-05-05 13:48 43.68966 -79.63530 579 ft 16 kts 137°
2026-05-05 13:48 43.68880 -79.63416 579 ft 18 kts 136°
2026-05-05 13:48 43.68776 -79.63278 575 ft 23 kts 136°
2026-05-05 13:48 43.68656 -79.63121 577 ft 25 kts 136°
2026-05-05 13:49 43.68530 -79.62958 571 ft 19 kts 138°
2026-05-05 13:49 43.68440 -79.62843 575 ft 18 kts 137°
2026-05-05 13:49 43.68347 -79.62724 575 ft 19 kts 137°
2026-05-05 13:49 43.68252 -79.62599 574 ft 19 kts 137°
2026-05-05 13:50 43.68148 -79.62465 576 ft 22 kts 137°
2026-05-05 13:50 43.68032 -79.62318 575 ft 12 kts 136°
2026-05-05 13:50 43.68011 -79.62289 577 ft 0 kts 136°
2026-05-05 13:51 43.68006 -79.62282 577 ft 3 kts 136°
2026-05-05 13:51 43.67960 -79.62221 575 ft 12 kts 136°
2026-05-05 13:51 43.67916 -79.62120 576 ft 13 kts 74°
2026-05-05 13:51 43.67982 -79.62013 572 ft 16 kts 35°
2026-05-05 13:52 43.68079 -79.61932 574 ft 18 kts 45°
2026-05-05 13:52 43.68143 -79.61849 576 ft 4 kts 20°
2026-05-05 13:52 43.68167 -79.61867 576 ft 5 kts 320°
2026-05-05 13:52 43.68190 -79.61907 573 ft 4 kts 305°
2026-05-05 13:53 43.68197 -79.61922 575 ft 0 kts 304°
2026-05-05 13:53 43.68198 -79.61923 575 ft 0 kts 304°